     2              OBSERVATION DATA    GPS                 RINEX VERSION / TYPE
teqc 1997Sep10 19971030 21:34:52UTC                         PGM / RUN BY / DATE
                                                            COMMENT
Original Marker Name: 65955.SCRP                            COMMENT
Campaign Name: NGS Imperial Valley 1990                     COMMENT
4-Character Station Name: SCRP                              COMMENT
6-Character Antenna Code: TI4100                            COMMENT
Vertical Measurement Point: PAE                             COMMENT
Vertical Offset to Rinex Ref. Point: 0.0000                 COMMENT
Radial Measurement Point: RRP                               COMMENT
Radial Offset to Rinex Ref. Point: 0.0000                   COMMENT
Antenna Height from Field Measurement: 1.3355 m             COMMENT
Original XYZ: -2454742.0133 -4766156.6346 3441103.6694      COMMENT
New XYZ position is based on association with SCEC monument COMMENT
E1C8P4W3+0101. Position of that monument is believed to be  COMMENT
valid to within 1 m horizontally; vertical accuracy         COMMENT
should be no worse than 3-times this value.                 COMMENT
                                                            COMMENT
Revised Rinex header created by UCSD GPS archive for        COMMENT
GSAC on 11-Nov-1999 (1999:315) 16:03:54 GMT                 COMMENT
For assistance contact dagnew@ucsd.edu or hjohnson@ucsd.edu COMMENT
                                                            COMMENT
SCRIPPS 1989 UCSD IGPP                                      MARKER NAME
5 NATIONAL GEODETIC SURVEY                                  OBSERVER / AGENCY
122 TI 4100 1.9                                             REC # / TYPE / VERS
4102 TI 4100                                                ANT # / TYPE
 -2455522.0000 -4767213.0000  3441655.0000                  APPROX POSITION XYZ
        1.3355        0.0000        0.0000                  ANTENNA: DELTA H/E/N
     1     1     0                                          WAVELENGTH FACT L1/2
     4    P1    P2    L1    L2                              # / TYPES OF OBSERV
    15                                                      INTERVAL
  1990     3    10     7    54   29.000000                  TIME OF FIRST OBS
  1990     3    10     9    36   59.000000                  TIME OF LAST OBS
     0                                                      # OF SATELLITES
                                                            END OF HEADER
 90  3 10  7 54 29.0800000  0  4G 3G12G19G13
  21702281.194    21702283.013    26868226.654 9 -49610952.121 9
  21762709.121    21762710.704    55273318.770 8 -72476658.824 7
  22513053.830    22513056.758    14573665.273 9 -23209763.467 9
  21733610.801    21733612.584    81278127.790 9-124755393.559 7
 90  3 10  7 54 44.0800000  0  4G 3G12G19G13
  21700043.198    21700044.803    26856464.742 9 -49620117.253 8
  21770542.011    21770544.630    55314482.907 9 -72444582.873 8
  22512982.571    22512984.979    14573289.498 9 -23210056.288 8
  21737384.995    21737386.805    81297960.304 9-124739939.656 8
 90  3 10  7 54 59.0800000  0  4G 3G12G19G13
  21697810.562    21697811.585    26844734.878 9 -49629257.424 9
  21778394.916    21778397.146    55355746.494 9 -72412429.432 8
  22512935.840    22512939.090    14573048.567 9 -23210244.042 9
  21741161.244    21741163.393    81317805.285 9-124724476.020 8
 90  3 10  7 55 14.0800000  0  4G 3G12G19G13
  21695583.862    21695585.046    26833036.734 9 -49638372.840 8
  21786266.322    21786267.756    55397108.960 9 -72380198.947 7
  22512915.758    22512917.852    14572941.991 9 -23210327.105 8
  21744940.102    21744942.202    81337662.643 9-124709002.753 8
 90  3 10  7 55 29.0800000  0  4G 3G12G19G13
  21693364.381    21693366.664    26821370.652 9 -49647463.303 8
  21794155.407    21794157.322    55438570.173 9 -72347891.510 7
  22512921.064    22512923.436    14572969.994 9 -23210305.297 9
  21748721.165    21748723.790    81357533.035 9-124693519.326 8
 90  3 10  7 55 44.0800000  0  4G 3G12G19G13
  21691150.815    21691151.480    26809735.949 9 -49656529.299 8
  21802063.169    21802065.969    55480129.445 9 -72315507.677 7
  22512952.279    22512954.645    14573132.194 9 -23210178.921 8
  21752505.539    21752506.748    81377415.761 9-124678026.298 8
 90  3 10  7 55 59.0800000  0  4G 3G12G19G13
  21688942.618    21688944.339    26798133.100 9 -49665570.483 9
  21809989.282    21809993.484    55521786.504 9 -72283047.641 8
  22513008.256    22513010.802    14573428.708 9 -23209947.889 8
  21756290.989    21756292.773    81397310.865 9-124662523.608 8
 90  3 10  7 56 14.0800000  0  4G 3G12G19G13
  21686740.480    21686741.589    26786561.697 9 -49674587.167 7
  21817934.952    21817939.651    55563540.938 9 -72250511.730 8
  22513089.326    22513093.860    14573859.369 9 -23209612.308 7
  21760079.172    21760082.026    81417218.300 9-124647011.327 8
 90  3 10  7 56 29.0800000  0  4G 3G12G19G13
  21684543.754    21684546.300    26775021.949 9 -49683579.204 8
  21825898.882    21825902.622    55605392.481 9 -72217900.143 8
  22513197.444    22513200.826    14574424.057 9 -23209172.307 9
  21763869.618    21763870.969    81437138.180 9-124631489.334 8
 90  3 10  7 56 44.0800000  0  4G 3G12G19G13
  21682354.182    21682356.102    26763513.688 9 -49692546.667 8
  21833881.690    21833886.436    55647340.660 9 -72185213.251 7
  22513331.246    22513333.498    14575122.994 9 -23208627.684 8
  21767663.641    21767664.604    81457070.298 9-124615957.824 8
 90  3 10  7 56 59.0800000  0  4G 3G12G19G13
  21680170.130    21680173.074    26752036.692 8 -49701489.779 8
  21841881.804    21841887.139    55689384.944 9 -72152451.472 7
  22513489.764    22513491.177    14575955.803 9 -23207978.749 8
  21771458.170    21771459.106    81477014.598 9-124600416.814 7
 90  3 10  7 57 14.0800000  0  4G 3G12G19G13
  21677991.375    21677994.081    26740591.019 9 -49710408.481 8
  21849901.538    21849907.086    55731524.917 9 -72119615.127 8
  22513673.439    22513674.668    14576922.695 9 -23207225.338 8
  21775254.628    21775255.853    81496970.990 9-124584866.395 7
 90  3 10  7 57 29.0800000  0  4G 3G12G19G13
  21675818.791    21675821.523    26729176.688 9 -49719302.753 8
  21857939.211    21857942.183    55773760.245 9 -72086704.481 8
  22513883.145    22513886.132    14578023.443 9 -23206367.624 8
  21779055.512    21779056.304    81516939.598 9-124569306.432 7
 90  3 10  7 57 44.0800000  0  4G 3G12G19G13
  21673652.663    21673653.732    26717793.503 9 -49728172.756 8
  21865993.954    21865997.167    55816090.590 9 -72053719.807 8
  22514119.229    22514119.772    14579257.951 9 -23205405.681 7
  21782857.448    21782858.514    81536920.350 9-124553737.024 8
 90  3 10  7 57 59.0800000  0  4G 3G12G19G13
  21671493.749    21671494.710    26706441.360 9 -49737018.588 7
  21874069.175    21874071.092    55858515.587 9 -72020661.358 7
  22514379.295    22514380.582    14580626.106 9 -23204339.599 8
  21786661.833    21786663.131    81556913.215 9-124538158.186 8
 90  3 10  7 58 14.0800000  0  4G 3G12G19G13
  21669339.168    21669339.768    26695120.307 9 -49745840.185 7
  21882160.477    21882163.304    55901034.771 9 -71987529.534 8
  22514664.564    22514666.032    14582127.691 8 -23203169.546 8
  21790468.144    21790470.559    81576918.011 9-124522570.032 7
 90  3 10  7 58 29.0800000  0  4G 3G12G19G13
  21667191.576    21667191.901    26683830.207 9 -49754637.678 8
  21890268.411    21890270.917    55943647.661 9 -71954324.680 8
  22514975.694    22514976.791    14583762.880 9 -23201895.395 8
  21794278.132    21794279.657    81596934.808 9-124506972.540 7
 90  3 10  7 58 44.0800000  0  4G 3G12G19G13
  21665049.155    21665049.294    26672570.944 9 -49763411.120 8
  21898394.134    21898398.048    55986353.933 9 -71921047.081 9
  22515312.992    22515313.353    14585531.260 9 -23200517.451 8
  21798089.213    21798090.039    81616963.419 8-124491365.834 8
 90  3 10  7 58 59.0800000  0  4G 3G12G19G13
  21662912.449    21662912.171    26661342.711 9 -49772160.394 8
  21906538.556    21906542.999    56029153.201 9 -71887697.012 8
  22515674.234    22515675.977    14587433.064 9 -23199035.533 8
  21801902.643    21801904.087    81637003.954 9-124475749.836 8
 90  3 10  7 59 14.0800000  0  4G 3G12G19G13
  21660779.847    21660782.534    26650145.065 9 -49780885.835 7
  21914701.662    21914705.241    56072045.239 9 -71854274.658 8
  22516061.192    22516063.444    14589468.021 9 -23197449.861 8
  21805718.619    21805719.124    81657056.301 9-124460124.640 7
 90  3 10  7 59 29.0800000  0  4G 3G12G19G13
  21658655.559    21658657.847    26638978.203 9 -49789587.305 8
  21922882.454    21922885.050    56115029.515 9 -71820780.417 8
  22516472.603    22516476.191    14591636.075 9 -23195760.490 9
  21809536.796    21809538.785    81677120.374 9-124444490.308 6
 90  3 10  7 59 44.0800000  0  4G 3G12G19G13
  21656536.621    21656540.642    26627841.834 9 -49798265.014 8
  21931079.270    21931081.315    56158105.599 9 -71787214.651 8
  22516911.198    22516914.141    14593937.289 9 -23193967.349 8
  21813356.951    21813359.337    81697196.352 9-124428846.681 7
 90  3 10  7 59 59.0800000  0  4G 3G12G19G13
  21654422.786    21654425.699    26616736.019 8 -49806918.879 8
  21939293.801    21939296.565    56201273.140 9 -71753577.622 8
  22517374.064    22517376.002    14596371.443 9 -23192070.616 8
  21817179.910    21817180.880    81717284.228 9-124413193.799 8
 90  3 10  8  0 14.0800000  0  4G 3G12G19G13
  21652315.786    21652317.794    26605660.884 9 -49815548.842 8
  21947525.130    21947527.981    56244531.698 9 -71719869.658 8
  22517863.381    22517865.832    14598938.293 8 -23190070.490 7
  21821004.157    21821006.121    81737383.798 9-124397531.792 7
 90  3 10  8  0 29.0800000  0  4G 3G12G19G13
  21650214.518    21650215.952    26594616.094 9 -49824155.167 7
  21955774.238    21955777.345    56287880.822 9 -71686091.134 7
  22518375.615    22518379.261    14601637.877 9 -23187966.929 8
  21824831.033    21824833.207    81757495.018 8-124381860.697 8
 90  3 10  8  0 44.0800000  0  4G 3G12G19G13
  21648119.251    21648120.543    26583601.608 8 -49832737.894 8
  21964040.426    21964043.867    56331320.115 9 -71652242.335 8
  22518915.606    22518917.466    14604470.046 8 -23185760.053 9
  21828659.825    21828663.889    81777618.063 9-124366180.398 8
 90  3 10  8  0 59.0800000  0  4G 3G12G19G13
  21646029.177    21646030.264    26572617.523 9 -49841296.910 7
  21972323.813    21972327.721    56374849.126 9 -71618323.639 8
  22519480.975    22519481.082    14607434.804 9 -23183449.848 9
  21832490.756    21832493.068    81797752.781 9-124350491.003 7
 90  3 10  8  1 14.0800000  0  4G 3G12G19G13
  21643944.001    21643946.078    26561663.696 9 -49849832.361 8
  21980623.825    21980628.389    56418467.641 9 -71584335.185 9
  22520069.023    22520070.155    14610531.816 9 -23181036.595 8
  21836325.043    21836327.146    81817899.036 8-124334792.618 7
 90  3 10  8  1 29.0800000  0  4G 3G12G19G13
  21641865.791    21641866.315    26550739.953 8 -49858344.358 9
  21988941.154    21988946.016    56462175.182 9 -71550277.361 8
  22520683.937    22520685.817    14613761.099 9 -23178520.284 8
  21840159.150    21840162.364    81838056.991 8-124319085.111 7
 90  3 10  8  1 44.0800000  0  4G 3G12G19G13
  21639793.234    21639794.865    26539846.299 9 -49866832.931 9
  21997273.854    21997278.872    56505971.461 9 -71516150.389 7
  22521324.162    22521325.719    14617122.729 9 -23175900.836 8
  21843998.529    21844001.132    81858226.515 8-124303368.590 6
 90  3 10  8  1 59.0800000  0  4G 3G12G19G13
  21637725.292    21637727.012    26528982.767 9 -49875298.012 8
  22005625.834    22005629.962    56549855.948 9 -71481954.690 8
  22521989.196    22521988.443    14620616.556 9 -23173178.373 8
  21847839.511    21847841.999    81878407.513 8-124287643.147 7
 90  3 10  8  2 14.0800000  0  4G 3G12G19G13
  21635664.524    21635666.062    26518149.221 9 -49883739.730 9
  22013993.426    22013997.409    56593828.272 8 -71447690.518 8
  22522678.251    22522678.916    14624242.274 9 -23170353.159 8
  21851682.457    21851683.148    81898599.875 9-124271908.847 8
 90  3 10  8  2 29.0800000  0  4G 3G12G19G13
  21633609.288    21633610.114    26507345.658 9 -49892158.083 9
  22022377.633    22022380.936    56637888.048 9 -71413358.235 8
  22523393.340    22523394.417    14628000.034 9 -23167425.037 8
  21855527.017    21855527.953    81918803.621 9-124256165.662 6
 90  3 10  8  2 44.0800000  0  4G 3G12G19G13
  21631558.116    21631559.671    26496571.907 9 -49900553.214 8
  22030779.582    22030782.268    56682034.873 9 -71378958.108 8
  22524133.545    22524134.837    14631889.617 8 -23164394.216 8
  21859374.369    21859374.583    81939018.764 9-124240413.610 7
 90  3 10  8  2 59.0800000  0  4G 3G12G19G13
  21629512.570    21629514.736    26485827.882 9 -49908925.195 8
  22039195.820    22039199.274    56726268.262 9 -71344490.536 8
  22524899.356    22524901.448    14635910.764 9 -23161260.871 8
  21863223.702    21863224.125    81959245.093 9-124224652.833 8
 90  3 10  8  3 14.0800000  0  4G 3G12G19G13
  21627472.947    21627476.512    26475113.606 9 -49917273.985 8
  22047629.601    22047633.550    56770587.836 9 -71309955.819 7
  22525688.184    22525690.631    14640063.340 9 -23158025.107 8
  21867073.860    21867074.883    81979482.820 9-124208883.165 7
 90  3 10  8  3 29.0800000  0  4G 3G12G19G13
  21625440.883    21625443.235    26464429.020 9 -49925599.626 8
  22056078.721    22056083.353    56814993.164 9 -71275354.264 8
                  22526503.920    -3206661.743 8
  21870927.319    21870928.272    81999731.999 9-124193104.595 8
 90  3 10  8  3 44.0800000  0  4G 3G12G19G13
  21623413.207    21623415.392    26453774.059 9 -49933902.188 9
  22064545.950    22064549.652    56859483.861 9 -71240686.181 8
  22527343.656    22527346.642    -3202246.243 9   4149816.641 8
  21874782.873    21874784.828    82019992.463 9-124177317.203 7
 90  3 10  8  3 59.0800000  0  4G 3G12G19G13
  21621390.357    21621393.072    26443148.659 9 -49942181.713 8
  22073028.666    22073030.338    56904059.411 9 -71205951.993 8
  22528209.393    22528211.343    -3197699.569 9   4153359.504 8
  21878640.643    21878641.930    82040264.094 8-124161521.113 8
 90  3 10  8  4 14.0800000  0  4G 3G12G19G13
  21619372.854    21619376.398    26432552.772 9 -49950438.242 8
  22081527.806    22081530.121    56948719.431 9 -71171151.967 8
  22529098.568    22529101.060    -3193022.003 8   4157004.349 9
  21882499.815    21882501.632    82060546.851 9-124145716.371 8
 90  3 10  8  4 29.0800000  0  4G 3G12G19G13
  21617362.158    21617365.960    26421986.294 9 -49958671.863 9
  22090042.891    22090044.708    56993463.518 9 -71136286.446 7
  22530014.098    22530017.486    -3188213.489 9   4160751.239 8
  21886361.666    21886364.401    82080840.961 9-124129902.760 8
 90  3 10  8  4 44.0800000  0  4G 3G12G19G13
  21615357.856    21615360.670    26411449.152 8 -49966882.608 8
  22098572.079    22098575.668    57038291.322 9 -71101355.693 8
  22530954.530    22530956.159    -3183274.205 9   4164600.026 8
  21890225.686    21890227.229    82101146.171 9-124114080.512 8
 90  3 10  8  4 59.0800000  0  4G 3G12G19G13
  21613359.075    21613361.646    26400941.399 9 -49975070.475 9
  22107118.670    22107121.931    57083202.506 9 -71066359.982 8
  22531918.941    22531920.840    -3178204.076 9   4168550.764 8
  21894092.110    21894095.366    82121462.662 9-124098249.468 8
 90  3 10  8  5 14.0800000  0  4G 3G12G19G13
  21611364.727    21611367.534    26390462.915 8 -49983235.531 8
  22115681.202    22115683.387    57128196.668 9 -71031299.582 8
  22532908.469    22532911.021    -3173003.280 9   4172603.339 9
  21897960.892    21897962.743    82141790.135 9-124082409.876 8
 90  3 10  8  5 29.0800000  0  4G 3G12G19G13
  21609376.557    21609379.251    26380013.679 9 -49991377.810 8
  22124259.596    22124260.108    57173273.372 9 -70996174.882 8
  22533925.215    22533925.964    -3167672.205 8   4176757.406 8
  21901830.097    21901832.364    82162128.636 9-124066561.699 8
 90  3 10  8  5 44.0800000  0  4G 3G12G19G13
  21607395.045    21607396.976    26369593.506 9 -49999497.425 8
  22132852.744    22132853.674    57218432.036 9 -70960986.302 7
  22534963.653    22534964.491    -3162210.936 8   4181012.926 8
  21905703.178    21905705.055    82182478.421 9-124050704.720 8
 90  3 10  8  5 59.0800000  0  4G 3G12G19G13
  21605417.747    21605418.762    26359202.488 9 -50007594.317 8
  22141461.923    22141463.004    57263672.265 9 -70925734.187 8
  22536026.481    22536029.672    -3156619.416 9   4185369.947 8
  21909577.649    21909578.267    82202839.292 9-124034839.103 9
 90  3 10  8  6 14.0800000  0  4G 3G12G19G13
  21603444.548    21603445.897    26348840.562 9 -50015668.529 8
  22150085.699    22150087.178    57308993.687 9 -70890418.794 8
  22537116.215    22537118.443    -3150897.848 9   4189828.308 8
  21913454.250    21913456.582    82223211.353 9-124018964.765 8
 90  3 10  8  6 29.0800000  0  4G 3G12G19G13
  21601477.937    21601478.558    26338507.515 8 -50023720.249 8
  22158723.304    22158727.351    57354395.888 9 -70855040.469 8
  22538230.741    22538231.805    -3145046.265 9   4194387.968 9
  21917333.317    21917334.531    82243594.385 9-124003081.891 7
 90  3 10  8  6 44.0800000  0  4G 3G12G19G13
  21599516.146    21599517.795    26328203.434 9 -50031749.397 8
  22167379.523    22167382.626    57399878.432 8 -70819599.542 8
  22539369.305    22539369.862    -3139065.156 9   4199048.564 9
  21921214.028    21921215.425    82263988.532 9-123987190.361 8
 90  3 10  8  6 59.0800000  0  4G 3G12G19G13
  21597561.733    21597562.987    26317928.131 9 -50039756.135 9
  22176049.459    22176052.635    57445440.946 9 -70784096.283 8
  22540531.326    22540531.909    -3132954.429 9   4203810.172 9
  21925097.394    21925097.957    82284393.616 9-123971290.295 7
 90  3 10  8  7 14.0800000  0  4G 3G12G19G13
  21595612.720    21595613.846    26307681.631 9 -50047740.411 8
  22184735.341    22184739.603    57491083.103 9 -70748530.975 8
  22541719.323    22541718.224    -3126714.256 9   4208672.632 7
  21928981.773    21928982.467    82304809.700 9-123955381.660 8
 90  3 10  8  7 29.0800000  0  4G 3G12G19G13
  21593668.657    21593669.482    26297464.047 8 -50055702.167 8
  22193435.643    22193438.336    57536804.401 8 -70712903.996 8
  22542931.027    22542931.422    -3120344.661 9   4213635.947 8
  21932868.767    21932870.816    82325236.500 9-123939464.669 9
 90  3 10  8  7 44.0800000  0  4G 3G12G19G13
  21591729.752    21591731.281    26287275.196 9 -50063641.531 8
  22202151.995    22202155.631    57582604.542 9 -70677215.580 8
  22544168.078    22544169.191    -3113845.851 8   4218699.944 8
  21936758.579    21936759.918    82345674.226 9-123923539.164 8
 90  3 10  8  7 59.0800000  0  4G 3G12G19G13
  21589796.542    21589797.855    26277115.026 9 -50071558.562 9
  22210882.865    22210884.316    57628482.937 9 -70641466.175 7
  22545428.402    22545429.409    -3107218.047 9   4223864.461 9
  21940649.826    21940650.563    82366122.839 9-123907605.161 9
 90  3 10  8  8 14.0800000  0  4G 3G12G19G13
  21587869.256    21587870.258    26266983.352 9 -50079453.372 9
  22219628.120    22219630.725    57674439.162 9 -70605656.142 8
  22546713.683    22546714.390    -3100461.418 9   4229129.360 8
  21944542.608    21944544.321    82386582.578 9-123891662.505 8
 90  3 10  8  8 29.0800000  0  4G 3G12G19G13
  21585945.391    21585946.505    26256880.296 9 -50087325.876 9
  22228387.977    22228389.360    57720472.895 9 -70569785.704 9
  22548023.976    22548026.493    -3093575.741 8   4234494.813 8
  21948438.205    21948440.657    82407053.096 9-123875711.449 9
 90  3 10  8  8 44.0800000  0  4G 3G12G19G13
  21584028.649    21584029.223    26246805.765 9 -50095176.160 8
  22237162.286    22237163.610    57766583.678 9 -70533855.230 8
  22549359.084    22549361.978    -3086561.401 9   4239960.521 8
  21952335.519    21952336.850    82427534.407 9-123859752.004 9
 90  3 10  8  8 59.0800000  0  4G 3G12G19G13
  21582116.385    21582117.753    26236759.722 9 -50103004.239 7
  22245950.329    22245953.040    57812771.104 9 -70497865.033 8
  22550718.544    22550719.774    -3079418.538 9   4245526.388 9
  21956235.118    21956237.599    82448026.533 9-123843784.110 8
 90  3 10  8  9 14.0800000  0  4G 3G12G19G13
  21580210.229    21580210.923    26226742.076 9 -50110810.202 9
  22254754.146    22254757.739    57859034.727 9 -70461815.460 7
  22552101.558    22552103.041    -3072147.531 9   4251192.098 7
  21960136.988    21960138.679    82468529.478 9-123827807.779 9
 90  3 10  8  9 29.0800000  0  4G 3G12G19G13
  21578309.234    21578311.208    26216752.874 9 -50118593.992 9
  22263572.185    22263575.039    57905374.065 9 -70425706.883 8
  22553508.866    22553510.168    -3064748.175 9   4256957.830 8
  21964040.617    21964043.629    82489043.301 9-123811822.997 9
 90  3 10  8  9 44.0800000  0  4G 3G12G19G13
  21576413.940    21576415.469    26206791.927 9 -50126355.757 8
  22272404.095    22272409.342    57951788.842 9 -70389539.525 8
  22554941.180    22554943.093    -3057220.730 9   4262823.349 8
  21967945.932    21967948.825    82509568.081 9-123795829.643 8
 90  3 10  8  9 59.0800000  0  4G 3G12G19G13
  21574524.306    21574525.337    26196859.230 9 -50134095.520 8
  22281250.430    22281255.269    57998278.567 9 -70353313.751 7
  22556398.333    22556398.676    -3049565.360 8   4268788.570 8
  21971853.836    21971856.774    82530103.744 9-123779827.831 9
 90  3 10  8 10 14.0800000  0  4G 3G12G19G13
  21572639.026    21572640.246    26186954.852 9 -50141813.211 8
  22290111.812    22290115.974    58044842.896 9 -70317029.854 7
  22557878.964    22557880.794    -3041782.417 9   4274853.192 8
  21975763.176    21975765.145    82550650.196 9-123763817.597 8
 90  3 10  8 10 29.0800000  0  4G 3G12G19G13
  21570759.170    21570761.075    26177078.551 9 -50149509.036 9
  22298987.764    22298991.574    58091481.387 9 -70280688.164 8
  22559385.664    22559386.074    -3033871.999 9   4281017.153 9
  21979675.487    21979678.174    82571207.429 9-123747798.975 9
 90  3 10  8 10 44.0800000  0  4G 3G12G19G13
  21568886.341    21568888.098    26167230.286 9 -50157183.006 7
  22307877.151    22307880.264    58138193.591 9 -70244289.055 8
  22560915.195    22560916.039    -3025834.163 9   4287280.397 7
  21983588.684    21983591.672    82591775.320 9-123731772.041 8
 90  3 10  8 10 59.0800000  0  4G 3G12G19G13
  21567015.967    21567018.144    26157410.187 9 -50164835.024 9
  22316779.861    22316782.217    58184979.055 9 -70207832.836 8
  22562468.237    22562470.766    -3017669.396 8   4293642.541 9
  21987505.774    21987507.272    82612353.928 9-123715736.759 9
 90  3 10  8 11 14.0800000  0  4G 3G12G19G13
  21565153.467    21565154.308    26147617.954 8 -50172465.330 9
  22325695.980    22325699.951    58231837.477 9 -70171319.777 8
  22564046.297    22564047.626    -3009377.359 9   4300103.857 8
  21991424.295    21991426.551    82632943.291 9-123699693.084 8
 90  3 10  8 11 29.0800000  0  4G 3G12G19G13
  21563295.167    21563296.263    26137853.737 9 -50180073.811 8
  22334627.281    22334629.075    58278768.248 9 -70134750.342 8
  22565648.183    22565650.833    -3000958.301 8   4306664.149 8
  21995344.533    21995345.892    82653543.445 9-123683641.009 8
 90  3 10  8 11 44.0800000  0  4G 3G12G19G13
  21561442.897    21561445.003    26128117.504 9 -50187660.487 7
  22343571.186    22343574.459    58325770.930 9 -70098124.883 9
  22567275.435    22567276.940    -2992412.432 9   4313323.263 9
  21999266.219    21999268.047    82674154.506 9-123667580.436 9
 90  3 10  8 11 59.0800000  0  4G 3G12G19G13
  21559594.982    21559596.338    26118409.161 9 -50195225.427 9
  22352528.426    22352531.739    58372845.211 8 -70061443.627 8
  22568924.962    22568928.327    -2983739.951 9   4320081.032 9
  22003190.692    22003192.022    82694776.281 9-123651511.537 8
 90  3 10  8 12 14.0800000  0  4G 3G12G19G13
  21557753.583    21557752.717    26108728.594 8 -50202768.719 8
  22361500.199    22361503.198    58419990.669 8 -70024706.910 8
  22570598.439    22570602.487    -2974941.119 8   4326937.245 9
  22007116.825    22007118.273    82715408.819 9-123635434.234 9
 90  3 10  8 12 29.0800000  0  4G 3G12G19G13
  21555915.545    21555916.152    26099076.063 9 -50210290.176 9
  22370486.099    22370487.829    58467206.925 8 -69987915.028 7
  22572296.751    22572299.297    -2966016.116 9   4333891.772 8
  22011044.459    22011046.868    82736052.152 9-123619348.526 8
 90  3 10  8 12 44.0800000  0  4G 3G12G19G13
  21554085.673    21554085.319    26089451.304 9 -50217789.974 8
  22379484.780    22379486.006    58514493.586 8 -69951068.286 8
  22574019.569    22574022.642    -2956964.896 8   4340944.668 9
  22014975.423    22014976.899    82756706.211 9-123603254.464 9
 90  3 10  8 12 59.0800000  0  4G 3G12G19G13
  21552259.877    21552257.472    26079854.163 9 -50225268.262 8
  22388495.830    22388497.423    58561850.115 9 -69914167.095 8
  22575764.891    22575768.457    -2947787.661 8   4348095.747 9
  22018907.714    22018908.819    82777370.990 9-123587152.034 8
 90  3 10  8 13 14.0800000  0  4G 3G12G19G13
  21550438.505    21550437.350    26070284.603 9 -50232725.060 8
  22397520.830    22397522.714    58609276.122 8 -69877211.779 8
  22577535.940    22577538.345    -2938484.793 8   4355344.731 8
  22022841.941    22022844.038    82798046.447 9-123571041.311 8
 90  3 10  8 13 29.0800000  0  4G 3G12G19G13
  21548622.970    21548621.482    26060742.675 9 -50240160.337 8
  22406559.122    22406561.234    58656771.270 9 -69840202.579 8
  22579329.672    22579333.001    -2929056.324 8   4362691.577 9
  22026777.810    22026780.123    82818732.375 9-123554922.401 9
 90  3 10  8 13 44.0800000  0  4G 3G12G19G13
  21546812.069    21546813.800    26051228.405 9 -50247574.035 8
  22415610.420    22415612.848    58704335.047 9 -69803139.902 7
  22581147.516    22581150.888    -2919502.370 8   4370136.201 8
  22030717.406    22030718.556    82839428.968 9-123538795.176 8
 90  3 10  8 13 59.0800000  0  4G 3G12G19G13
  21545007.031    21545007.948    26041741.748 9 -50254966.248 8
  22424674.132    22424676.851    58751966.977 8 -69766024.119 9
  22582989.768    22582992.900    -2909823.265 9   4377678.361 8
  22034657.619    22034659.004    82860136.297 9-123522659.603 8
 90  3 10  8 14 14.0800000  0  4G 3G12G19G13
  21543205.860    21543207.886    26032282.455 8 -50262337.132 9
  22433751.784    22433755.453    58799666.553 9 -69728855.622 8
  22584855.895    22584859.154    -2900018.987 8   4385318.058 8
  22038600.454    22038600.768    82880854.452 9-123506515.595 8
 90  3 10  8 14 29.0800000  0  4G 3G12G19G13
  21541410.225    21541412.903    26022850.621 8 -50269686.615 8
  22442840.807    22442843.998    58847433.585 8 -69691634.557 7
  22586744.837    22586749.296    -2890089.856 9   4393055.043 9
  22042545.115    22042546.099    82901583.383 9-123490363.182 9
 90  3 10  8 14 44.0800000  0  4G 3G12G19G13
  21539621.751    21539623.919    26013446.328 9 -50277014.635 8
  22451943.939    22451946.815    58895267.557 8 -69654361.338 8
  22588658.346    22588661.515    -2880036.081 8   4400889.165 8
  22046492.387    22046493.617    82922322.985 9-123474202.454 8
 90  3 10  8 14 59.0800000  0  4G 3G12G19G13
  21537836.348    21537838.793    26004069.341 9 -50284321.373 8
  22461057.476    22461060.990    58943168.141 9 -69617036.213 8
  22590596.004    22590598.194    -2869857.831 8   4408820.246 8
  22050439.862    22050441.688    82943073.301 9-123458033.387 8
 90  3 10  8 15 14.0800000  0  4G 3G12G19G13
  21536057.483    21536059.528    25994719.852 9 -50291606.699 9
  22470185.897    22470188.696    58991134.790 8 -69579659.599 9
  22592555.630    22592558.100    -2859555.281 8   4416848.206 8
  22054390.511    22054392.529    82963834.432 9-123441855.871 8
 90  3 10  8 15 29.0800000  0  4G 3G12G19G13
  21534283.665    21534285.184    25985397.786 9 -50298870.650 8
  22479324.869    22479330.382    59039167.090 9 -69542231.834 8
  22594539.754    22594543.181    -2849128.473 9   4424972.977 9
  22058342.961    22058346.055    82984606.226 9-123425670.046 8
 90  3 10  8 15 44.0800000  0  4G 3G12G19G13
  21532514.276    21532517.373    25976102.903 9 -50306113.419 8
  22488478.222    22488482.946    59087264.703 8 -69504753.178 8
  22596548.715    22596552.152    -2838577.594 8   4433194.439 9
  22062297.507    22062299.819    83005388.578 9-123409476.005 8
 90  3 10  8 15 59.0800000  0  4G 3G12G19G13
  21530750.341    21530751.420    25966835.192 9 -50313334.993 7
  22497643.090    22497647.501    59135427.141 9 -69467224.000 8
  22598578.887    22598582.702    -2827903.101 9   4441512.213 9
  22066254.943    22066257.594    83026181.728 9-123393273.546 8
 90  3 10  8 16 14.0800000  0  4G 3G12G19G13
  21528992.962    21528995.330    25957594.694 9 -50320535.379 8
  22506821.227    22506824.878    59183654.002 8 -69429644.612 9
  22600634.279    22600637.772    -2817105.102 8   4449926.217 8
  22070213.249    22070214.628    83046985.504 9-123377062.825 9
 90  3 10  8 16 29.0800000  0  4G 3G12G19G13
  21527239.695    21527239.949    25948381.255 9 -50327714.690 8
  22516010.786    22516013.051    59231944.795 9 -69392015.422 9
  22602712.021    22602716.666    -2806183.591 9   4458436.487 9
  22074175.213    22074176.196    83067800.001 9-123360843.741 8
 90  3 10  8 16 44.0800000  0  4G 3G12G19G13
  21525490.730    21525493.167    25939195.048 8 -50334872.763 8
  22525212.025    22525214.806    59280299.178 8 -69354336.688 8
  22604813.175    22604818.023    -2795138.767 9   4467042.840 8
  22078138.087    22078138.833    83088625.253 9-123344616.272 8
 90  3 10  8 16 59.0800000  0  4G 3G12G19G13
  21523749.285    21523750.339    25930035.932 9 -50342009.722 8
  22534425.341    22534426.782    59328716.591 8 -69316608.848 8
  22606939.323    22606943.170    -2783970.844 9   4475745.089 9
  22082102.402    22082103.655    83109461.311 9-123328380.379 9
 90  3 10  8 17 14.0800000  0  4G 3G12G19G13
  21522012.750    21522012.148    25920904.000 9 -50349125.502 8
  22543649.987    22543652.429    59377196.585 8 -69278832.226 8
  22609087.486    22609092.590    -2772680.194 9   4484542.989 8
  22086068.933    22086071.191    83130308.222 9-123312136.045 9
 90  3 10  8 17 29.0800000  0  4G 3G12G19G13
  21520279.974    21520278.695    25911799.015 9 -50356220.283 8
  22552887.834    22552888.821    59425738.817 9 -69241007.137 8
  22611258.944    22611263.957    -2761267.019 8   4493436.354 9
  22090037.192    22090038.926    83151165.894 9-123295883.312 7
 90  3 10  8 17 44.0800000  0  4G 3G12G19G13
  21518552.232    21518552.698    25902721.113 8 -50363293.971 9
  22562137.509    22562139.661    59474342.846 8 -69203133.871 8
  22613455.293    22613458.483    -2749731.540 8   4502425.044 8
  22094009.585    22094010.669    83172034.172 9-123279622.309 8
 90  3 10  8 17 59.0800000  0  4G 3G12G19G13
  21516827.917    21516829.526    25893670.188 8 -50370346.623 9
  22571397.622    22571400.046    59523008.225 9 -69165212.790 8
  22615672.807    22615676.709    -2738073.585 8   4511509.155 8
  22097982.652    22097984.285    83192913.240 8-123263352.916 8
 90  3 10  8 18 14.0800000  0  4G 3G12G19G13
  21515111.179    21515111.517    25884646.317 8 -50377378.217 8
  22580670.312    22580672.477    59571734.609 9 -69127244.188 8
  22617913.990    22617918.655    -2726293.383 8   4520688.519 8
  22101958.124    22101959.102    83213803.085 9-123247075.092 8
 90  3 10  8 18 29.0800000  0  4G 3G12G19G13
  21513396.280    21513400.791    25875649.071 9 -50384389.058 8
  22589953.485    22589957.208    59620521.622 9 -69089228.342 8
  22620179.383    22620182.749    -2714391.572 9   4529962.655 9
  22105935.770    22105936.468    83234703.658 9-123230788.932 8
 90  3 10  8 18 44.0800000  0  4G 3G12G19G13
  21511690.173    21511692.961    25866678.794 8 -50391378.907 8
  22599248.948    22599252.219    59669368.738 9 -69051165.651 8
  22622468.140    22622471.731    -2702368.201 8   4539331.504 9
  22109913.571    22109916.060    83255615.121 9-123214494.292 8
 90  3 10  8 18 59.0800000  0  4G 3G12G19G13
  21509989.284    21509991.310    25857735.285 8 -50398347.856 8
  22608555.490    22608558.170    59718275.644 9 -69013056.384 8
  22624779.447    22624783.883    -2690223.469 8   4548794.919 8
  22113895.086    22113897.791    83276537.280 9-123198191.310 8
 90  3 10  8 19 14.0800000  0  4G 3G12G19G13
  21508293.253    21508294.785    25848818.774 8 -50405295.805 8
  22617872.728    22617876.536    59767241.860 9 -68974900.888 8
  22627113.822    22627116.421    -2677957.545 8   4558352.785 8
  22117877.650    22117880.889    83297470.270 9-123181879.882 8
 90  3 10  8 19 29.0800000  0  4G 3G12G19G13
  21506600.374    21506604.097    25839928.901 8 -50412222.986 8
  22627202.869    22627205.418    59816266.912 9 -68936699.554 9
  22629471.240    22629473.021    -2665570.447 8   4568005.080 8
  22121864.145    22121866.637    83318414.209 8-123165559.919 8
 90  3 10  8 19 44.0800000  0  4G 3G12G19G13
  21504914.563    21504916.408    25831066.019 9 -50419129.127 8
  22636544.096    22636546.291    59865350.252 8 -68898452.796 9
  22631851.426    22631853.495    -2653062.451 9   4577751.558 8
  22125851.240    22125855.047    83339369.153 8-123149231.389 9
 90  3 10  8 19 59.0800000  0  4G 3G12G19G13
  21503232.976    21503234.977    25822229.762 8 -50426014.513 8
  22645895.552    22645896.943    59914491.671 9 -68860160.788 9
  22634255.047    22634257.889    -2640433.622 8   4587592.203 9
  22129842.212    22129844.203    83360334.807 9-123132894.495 9
 90  3 10  8 20 14.0800000  0  4G 3G12G19G13
  21501556.139    21501557.477    25813420.250 9 -50432879.041 7
  22655256.912    22655258.937    59963690.570 8 -68821823.993 8
  22636679.614    22636683.097    -2627684.453 8   4597526.613 9
  22133833.819    22133835.684    83381311.287 9-123116549.175 8
 90  3 10  8 20 29.0800000  0  4G 3G12G19G13
  21499886.472    21499887.386    25804637.294 9 -50439722.908 8
  22664630.166    22664632.570    60012946.555 8 -68783442.719 8
  22639129.369    22639132.750    -2614814.994 8   4607554.745 8
  22137826.838    22137829.093    83402298.661 8-123100195.364 9
 90  3 10  8 20 44.0800000  0  4G 3G12G19G13
  21498219.995    21498221.403    25795881.021 9 -50446545.965 9
  22674013.023    22674016.784    60062259.255 8 -68745017.242 9
  22641600.234    22641604.960    -2601825.658 7   4617676.290 8
  22141823.728    22141825.235    83423296.924 9-123083833.088 9
 90  3 10  8 20 59.0800000  0  4G 3G12G19G13
  21496559.827    21496561.104    25787151.439 9 -50453348.225 8
  22683407.435    22683412.028    60111628.248 9 -68706547.904 8
  22644095.407    22644098.963    -2588716.439 9   4627891.267 9
  22145820.675    22145822.981    83444305.933 8-123067462.425 9
 90  3 10  8 21 14.0800000  0  4G 3G12G19G13
  21494901.941    21494904.369    25778448.384 9 -50460129.837 9
  22692813.611    22692817.390    60161053.063 9 -68668035.066 8
  22646612.421    22646616.192    -2575487.494 8   4638199.511 9
  22149821.731    22149823.069    83465325.745 9-123051083.347 9
 90  3 10  8 21 29.0800000  0  4G 3G12G19G13
  21493251.061    21493253.941    25769771.987 9 -50466890.670 8
  22702229.172    22702233.325    60210533.238 9 -68629479.080 9
  22649153.572    22649156.735    -2562139.178 9   4648600.786 9
  22153823.130    22153824.635    83486356.319 9-123034695.887 9
 90  3 10  8 21 44.0800000  0  4G 3G12G19G13
  21491606.404    21491607.977    25761122.021 8 -50473630.910 9
  22711655.869    22711658.692    60260068.392 9 -68590880.263 8
  22651716.997    22651720.145    -2548671.709 9   4659094.905 9
  22157827.163    22157829.164    83507397.821 8-123018299.905 9
 90  3 10  8 21 59.0800000  0  4G 3G12G19G13
  21489964.666    21489967.150    25752498.743 8 -50480350.355 8
  22721093.947    22721096.291    60309658.004 9 -68552238.989 8
  22654302.412    22654304.420    -2535085.163 9   4669681.807 9
  22161832.941    22161834.302    83528450.213 9-123001895.446 8
 90  3 10  8 22 14.0800000  0  4G 3G12G19G13
  21488328.095    21488331.976    25743901.739 9 -50487049.342 8
  22730540.334    22730542.574    60359301.668 9 -68513555.630 8
  22656911.418    22656912.850    -2521380.057 9   4680361.104 8
  22165841.902    22165843.469    83549513.511 9-122985482.493 9
 90  3 10  8 22 29.0800000  0  4G 3G12G19G13
  21486697.454    21486699.823    25735331.473 8 -50493727.472 9
  22739998.585    22739999.818    60408998.985 9 -68474830.455 9
  22659540.456    22659543.288    -2507556.597 9   4691132.629 8
  22169851.412    22169853.358    83570587.892 9-122969060.891 8
 90  3 10  8 22 44.0800000  0  4G 3G12G19G13
  21485071.660    21485073.806    25726787.543 9 -50500385.077 8
  22749464.784    22749468.733    60458749.606 9 -68436063.760 8
  22662192.198    22662195.941    -2493614.783 9   4701996.374 8
  22173863.326    22173864.802    83591673.409 9-122952630.627 9
 90  3 10  8 22 59.0800000  0  4G 3G12G19G13
  21483452.372    21483451.673    25718270.040 9 -50507022.061 8
  22758942.035    22758945.209    60508553.187 9 -68397255.777 8
  22664868.342    22664870.823    -2479554.787 9   4712952.215 8
  22177877.872    22177879.798    83612769.904 9-122936191.792 8
 90  3 10  8 23 14.0800000  0  4G 3G12G19G13
  21481836.298    21481836.020    25709778.885 9 -50513638.550 7
  22768428.812    22768432.604    60558409.209 8 -68358406.934 8
  22667566.285    22667568.351    -2465377.035 7   4723999.798 8
  22181893.645    22181896.375    83633877.305 8-122919744.460 8
 90  3 10  8 23 29.0800000  0  4G 3G12G19G13
  21480224.796    21480225.077    25701314.176 9 -50520234.424 7
  22777926.072    22777928.270    60608317.206 9 -68319517.602 8
  22670286.777    22670288.260    -2451081.442 8   4735139.228 9
  22185913.206    22185915.818    83654995.861 9-122903288.431 9
 90  3 10  8 23 44.0800000  0  4G 3G12G19G13
  21478619.801    21478619.741    25692875.975 9 -50526809.634 8
  22787431.957    22787435.735    60658276.702 9 -68280588.120 7
  22673028.664    22673029.855    -2436668.486 8   4746370.092 8
  22189934.323    22189936.664    83676125.587 9-122886823.701 9
 90  3 10  8 23 59.0800000  0  4G 3G12G19G13
  21477018.688    21477019.629    25684464.112 9 -50533364.319 8
  22796950.195    22796951.487    60708287.298 9 -68241618.837 8
  22675793.376    22675796.258    -2422138.513 9   4757692.136 8
  22193958.154    22193959.364    83697266.352 9-122870350.382 9
 90  3 10  8 24 14.0800000  0  4G 3G12G19G13
  21475421.681    21475423.376    25676078.456 9 -50539898.586 9
  22806474.878    22806478.522    60758348.655 8 -68202609.995 8
  22678580.884    22678584.566    -2407491.698 8   4769105.235 8
  22197983.707    22197984.775    83718418.132 9-122853868.467 9
 90  3 10  8 24 29.0800000  0  4G 3G12G19G13
  21473830.540    21473832.508    25667719.214 8 -50546412.280 9
  22816011.086    22816014.593    60808460.293 8 -68163561.965 8
  22681390.875    22681393.302    -2392728.081 8   4780609.347 8
  22202010.629    22202013.043    83739581.269 9-122837377.722 9
 90  3 10  8 24 44.0800000  0  4G 3G12G19G13
  21472245.145    21472246.718    25659386.168 9 -50552905.570 8
  22825557.238    22825559.622    60858621.628 9 -68124475.229 8
  22684223.075    22684225.429    -2377847.908 8   4792204.281 8
  22206039.920    22206041.230    83760755.341 9-122820878.429 9
 90  3 10  8 24 59.0800000  0  4G 3G12G19G13
  21470665.185    21470666.780    25651079.590 9 -50559378.222 9
  22835111.976    22835115.165    60908832.374 9 -68085349.969 9
  22687077.149    22687079.506    -2362851.382 9   4803889.895 9
  22210071.152    22210072.759    83781940.527 9-122804370.478 9
 90  3 10  8 25 14.0800000  0  4G 3G12G19G13
  21469089.460    21469092.316    25642799.356 9 -50565830.354 8
  22844675.920    22844679.319    60959092.067 9 -68046186.590 8
  22689953.184    22689953.604    -2347738.826 9   4815665.900 8
  22214105.056    22214107.186    83803136.896 9-122787853.821 9
 90  3 10  8 25 29.0800000  0  4G 3G12G19G13
  21467518.666    21467521.677    25634545.179 9 -50572262.198 8
  22854249.344    22854253.305    61009400.222 9 -68006985.423 9
  22692851.444    22692853.195    -2332510.576 9   4827532.058 9
  22218139.092    22218141.556    83824344.472 9-122771328.432 9
 90  3 10  8 25 44.0800000  0  4G 3G12G19G13
  21465952.894    21465955.917    25626317.228 9 -50578673.592 8
  22863831.805    22863836.118    61059756.528 9 -67967746.757 8
  22695769.567    22695773.566    -2317166.643 9   4839488.355 9
  22222177.061    22222180.005    83845563.324 9-122754794.251 9
 90  3 10  8 25 59.0800000  0  4G 3G12G19G13
  21464391.927    21464394.115    25618115.468 9 -50585064.576 9
  22873423.659    22873428.044    61110160.628 9 -67928470.841 8
  22698712.302    22698715.541    -2301707.631 9   4851534.325 9
  22226217.546    22226220.339    83866793.588 9-122738251.178 9
 90  3 10  8 26 14.0800000  0  4G 3G12G19G13
  21462836.813    21462838.658    25609940.005 9 -50591435.067 9
  22883024.177    22883030.211    61160611.965 9 -67889158.128 8
  22701675.115    22701679.099    -2286133.615 9   4863669.923 9
  22230259.075    22230262.695    83888035.047 9-122721699.383 9
 90  3 10  8 26 29.0800000  0  4G 3G12G19G13
  21461285.487    21461287.997    25601790.740 9 -50597785.154 8
  22892633.545    22892638.044    61211110.089 9 -67849808.937 9
  22704662.666    22704663.760    -2270444.719 9   4875895.026 8
  22234303.832    22234305.718    83909287.901 9-122705138.714 8
 90  3 10  8 26 44.0800000  0  4G 3G12G19G13
  21459740.320    21459742.200    25593667.547 9 -50604114.904 8
  22902252.150    22902257.076    61261654.589 9 -67810423.610 8
  22707669.831    22707671.341    -2254641.001 8   4888209.613 9
  22238349.452    22238352.391    83930552.047 9-122688569.239 9
 90  3 10  8 26 59.0800000  0  4G 3G12G19G13
  21458198.914    21458201.356    25585570.523 9 -50610424.270 8
  22911878.921    22911884.117    61312245.010 9 -67771002.501 8
  22710698.351    22710700.517    -2238722.708 9   4900613.452 8
  22242397.826    22242401.517    83951827.338 9-122671991.075 8
 90  3 10  8 27 14.0800000  0  4G 3G12G19G13
  21456663.675    21456664.350    25577499.685 9 -50616713.227 8
  22921515.295    22921519.227    61362880.918 9 -67731545.952 8
  22713747.173    22713751.556    -2222690.353 8   4913106.188 9
  22246447.642    22246452.001    83973114.275 9-122655403.841 9
 90  3 10  8 27 29.0800000  0  4G 3G12G19G13
  21455133.396    21455133.957    25569455.096 9 -50622981.728 9
  22931159.179    22931163.909    61413561.853 9 -67692054.306 8
  22716820.989    22716823.589    -2206544.270 9   4925687.547 9
  22250501.265    22250505.289    83994412.707 9-122638807.661 9
 90  3 10  8 27 44.0800000  0  4G 3G12G19G13
  21453607.082    21453606.964    25561436.525 9 -50629229.955 8
  22940812.559    22940816.154    61464287.483 9 -67652527.851 8
  22719914.497    22719917.561    -2190284.543 8   4938357.472 8
  22254556.158    22254560.322    84015722.460 9-122622202.647 8
 90  3 10  8 27 59.0800000  0  4G 3G12G19G13
  21452085.045    21452087.355    25553444.019 9 -50635457.894 8
  22950473.721    22950476.429    61515057.413 9 -67612966.864 8
  22723029.759    22723033.432    -2173911.299 9   4951115.843 8
  22258614.903    22258617.744    84037043.699 9-122605588.690 9
 90  3 10  8 28 14.0800000  0  4G 3G12G19G13
  21450569.829    21450570.046    25545477.695 9 -50641665.416 9
  22960143.072    22960145.346    61565871.151 9 -67573371.757 8
  22726168.082    22726171.225    -2157424.860 8   4963962.405 8
  22262675.010    22262677.286    84058376.509 9-122588965.730 9
 90  3 10  8 28 29.0800000  0  4G 3G12G19G13
  21449058.253    21449059.599    25537537.552 9 -50647852.527 8
  22969820.567    22969824.313    61616728.286 9 -67533742.847 9
  22729326.541    22729329.019    -2140825.492 9   4976896.985 8
  22266736.286    22266738.352    84079720.896 9-122572333.736 9
 90  3 10  8 28 44.0800000  0  4G 3G12G19G13
  21447552.472    21447554.643    25529623.547 9 -50654019.289 9
  22979505.960    22979510.304    61667628.258 9 -67494080.546 8
  22732507.378    22732509.679    -2124113.353 9   4989919.427 9
  22270800.921    22270802.466    84101076.859 9-122555692.721 9
 90  3 10  8 28 59.0800000  0  4G 3G12G19G13
  21446051.437    21446054.893    25521735.669 9 -50660165.692 8
  22989200.427    22989204.233    61718570.725 8 -67454385.123 8
  22735708.145    22735711.140    -2107288.791 9   5003029.468 9
  22274867.118    22274869.138    84122444.288 9-122539042.775 8
 90  3 10  8 29 14.0800000  0  4G 3G12G19G13
  21444555.510    21444558.064    25513873.645 9 -50666291.931 8
  22998902.522    22998905.886    61769555.339 9 -67414656.872 8
  22738930.193    22738934.818    -2090351.992 7   5016226.961 9
  22278935.146    22278937.039    84143823.329 9-122522383.780 9
 90  3 10  8 29 29.0800000  0  4G 3G12G19G13
  21443064.365    21443067.162    25506037.822 9 -50672397.762 9
  23008612.331    23008615.638    61820581.644 9 -67374896.121 8
  22742173.634    22742178.634    -2073303.358 8   5029511.601 9
  22283005.414    22283007.207    84165214.038 9-122505715.700 8
 90  3 10  8 29 44.0800000  0  4G 3G12G19G13
  21441578.912    21441580.985    25498228.068 9 -50678483.269 9
  23018329.767    23018333.808    61871649.110 8 -67335103.317 8
  22745439.868    22745443.263    -2056143.083 7   5042883.246 9
  22287078.319    22287078.571    84186616.492 9-122489038.472 9
 90  3 10  8 29 59.0800000  0  4G 3G12G19G13
  21440098.031    21440099.155    25490444.403 9 -50684548.455 9
  23028055.197    23028059.263    61922757.315 9 -67295278.745 9
  22748726.555    22748730.477    -2038871.422 8   5056341.692 9
  22291153.566    22291155.458    84208030.615 9-122472352.147 8
 90  3 10  8 30 14.0800000  0  4G 3G12G19G13
  21438621.218    21438623.387    25482686.770 9 -50690593.358 9
  23037788.030    23037792.617    61973905.903 9 -67255422.717 9
  22752035.158    22752038.515    -2021488.455 8   5069886.839 9
  22295230.592    22295231.090    84229456.577 9-122455656.594 8
 90  3 10  8 30 29.0800000  0  4G 3G12G19G13
  21437148.363    21437151.695    25474955.076 8 -50696618.043 9
  23047528.409    23047533.923    62025094.355 9 -67215535.628 9
  22755364.505    22755367.778    -2003994.568 9   5083518.436 8
  22299309.737    22299310.458    84250894.280 9-122438951.905 8
 90  3 10  8 30 44.0800000  0  4G 3G12G19G13
  21435682.412    21435685.109    25467249.530 8 -50702622.371 9
  23057277.653    23057281.765    62076322.353 8 -67175617.719 9
  22758714.231    22758715.986    -1986390.084 8   5097236.216 8
  22303390.999    22303393.500    84272343.908 9-122422237.907 8
 90  3 10  8 30 59.0800000  0  4G 3G12G19G13
  21434221.189    21434223.516    25459569.990 9 -50708606.412 8
  23067032.779    23067038.214    62127589.464 9 -67135669.340 9
  22762085.324    22762087.515    -1968675.058 8   5111040.128 8
  22307475.736    22307477.321    84293805.434 9-122405514.649 8
 90  3 10  8 31 14.0800000  0  4G 3G12G19G13
  21432764.612    21432766.664    25451916.514 9 -50714570.155 9
  23076796.221    23076799.826    62178895.180 9 -67095690.866 9
  22765478.103    22765479.337    -1950849.992 8   5124929.771 9
  22311560.838    22311564.124    84315278.759 9-122388782.202 8
 90  3 10  8 31 29.0800000  0  4G 3G12G19G13
  21431312.966    21431314.524    25444289.028 9 -50720513.636 8
  23086567.537    23086570.273    62230238.946 9 -67055682.753 9
  22768892.619    22768893.068    -1932915.020 9   5138905.072 9
  22315650.577    22315651.784    84336764.011 9-122372040.451 8
 90  3 10  8 31 44.0800000  0  4G 3G12G19G13
  21429866.577    21429867.655    25436687.662 9 -50726436.780 8
  23096344.638    23096347.597    62281620.461 9 -67015645.223 8
  22772324.470    22772327.251    -1914870.560 8   5152965.676 8
  22319741.787    22319743.601    84358261.424 9-122355289.233 9
 90  3 10  8 31 59.0800000  0  4G 3G12G19G13
  21428426.923    21428427.604    25429112.319 9 -50732339.615 9
  23106128.901    23106132.407    62333039.356 8 -66975578.572 8
  22775778.741    22775782.294    -1896716.722 8   5167111.511 9
  22323833.581    22323836.763    84379770.777 9-122338528.711 8
 90  3 10  8 32 14.0800000  0  4G 3G12G19G13
  21426988.805    21426991.399    25421562.938 9 -50738222.232 9
  23115921.297    23115923.954    62384495.224 9 -66935483.105 8
  22779253.546    22779256.654    -1878453.550 8   5181342.553 8
  22327929.506    22327931.676    84401292.359 8-122321758.657 8
 90  3 10  8 32 29.0800000  0  4G 3G12G19G13
  21425557.666    21425558.987    25414039.638 9 -50744084.545 8
  23125718.582    23125722.358    62435987.630 8 -66895359.168 9
  22782749.149    22782753.771    -1860081.606 8   5195658.349 8
  22332026.870    22332028.862    84422825.986 9-122304979.207 8
 90  3 10  8 32 44.0800000  0  4G 3G12G19G13
  21424131.224    21424132.766    25406542.477 9 -50749926.482 9
  23135525.087    23135526.812    62487516.154 9 -66855207.112 8
  22786267.714    22786270.304    -1841601.038 8   5210058.790 9
  22336126.110    22336129.077    84444371.651 8-122288190.372 9
 90  3 10  8 32 59.0800000  0  4G 3G12G19G13
  21422709.920    21422712.264    25399071.243 9 -50755748.219 8
  23145337.646    23145339.692    62539080.210 9 -66815027.326 8
  22789804.298    22789809.293    -1823012.179 8   5224543.602 9
  22340227.599    22340232.181    84465929.577 9-122271391.980 8
 90  3 10  8 33 14.0800000  0  4G 3G12G19G13
  21421293.813    21421295.344    25391626.043 9 -50761549.672 9
  23155156.636    23155158.173    62590679.441 9 -66774820.149 8
  22793362.784    22793365.465    -1804315.247 9   5239112.625 9
  22344332.866    22344337.116    84487499.567 9-122254584.186 8
 90  3 10  8 33 29.0800000  0  4G 3G12G19G13
  21419881.429    21419882.166    25384206.898 9 -50767330.835 9
  23164982.154    23164984.885    62642313.445 9 -66734585.857 7
  22796942.296    22796943.708    -1785510.702 8   5253765.500 9
  22348440.858    22348444.816    84509081.771 9-122237766.877 6
 90  3 10  8 33 44.0800000  0  4G 3G12G19G13
  21418473.471    21418475.571    25376813.869 9 -50773091.631 9
  23174813.754    23174817.000    62693981.784 9 -66694324.809 9
  22800540.162    22800542.805    -1766598.841 9   5268502.010 9
  22352550.555    22352552.609    84530676.232 9-122220940.020 8
 90  3 10  8 33 59.0800000  0  4G 3G12G19G13
  21417071.705    21417073.568    25369446.778 9 -50778832.217 9
  23184653.601    23184655.490    62745684.129 9 -66654037.284 7
  22804158.748    22804162.721    -1747579.548 9   5283322.241 9
  22356660.556    22356664.591    84552283.066 8-122204103.525 7
 90  3 10  8 34 14.0800000  0  4G 3G12G19G13
  21415674.838    21415677.011    25362105.712 9 -50784552.523 9
  23194498.011    23194501.171    62797420.066 9 -66613723.595 8
  22807798.501    22807801.913    -1728453.150 9   5298225.926 9
  22360775.691    22360777.422    84573902.098 8-122187257.511 7
 90  3 10  8 34 29.0800000  0  4G 3G12G19G13
  21414282.614    21414284.730    25354790.660 9 -50790252.565 9
  23204349.238    23204352.604    62849189.018 9 -66573384.154 8
  22811458.659    22811460.341    -1709219.858 8   5313212.906 9
  22364891.811    22364893.556    84595533.608 8-122170401.775 7
 90  3 10  8 34 44.0800000  0  4G 3G12G19G13
  21412894.435    21412896.592    25347501.858 8 -50795932.133 9
  23214207.263    23214210.190    62900990.722 9 -66533019.201 8
  22815139.232    22815141.514    -1689880.346 9   5328282.644 8
  22369011.181    22369012.688    84617177.609 9-122153536.306 8
 90  3 10  8 34 59.0800000  0  4G 3G12G19G13
  21411513.582    21411515.610    25340239.025 9 -50801591.477 9
  23224070.649    23224075.303    62952824.755 9 -66492629.069 8
  22818839.562    22818840.463    -1670434.593 8   5343435.175 8
  22373131.541    22373134.469    84638834.025 9-122136661.181 7
 90  3 10  8 35 14.0800000  0  4G 3G12G19G13
  21410136.570    21410139.179    25333002.315 9 -50807230.474 9
  23233941.179    23233944.893    63004690.560 9 -66452214.158 7
  22822558.923    22822560.877    -1650882.914 8   5358670.237 8
  22377254.415    22377257.446    84660503.081 8-122119776.206 7
 90  3 10  8 35 29.0800000  0  4G 3G12G19G13
  21408764.942    21408766.083    25325791.594 9 -50812849.204 8
  23243817.274    23243821.175    63056587.653 9 -66411774.873 9
  22826299.815    22826301.276    -1631225.682 8   5373987.563 8
  22381380.481    22381380.862    84682184.670 9-122102881.470 7
 90  3 10  8 35 44.0800000  0  4G 3G12G19G13
  21407397.816    21407398.972    25318606.996 9 -50818447.587 9
  23253698.682    23253702.056    63108515.750 9 -66371311.438 9
  22830061.060    22830062.553    -1611463.115 9   5389386.949 8
  22385508.175    22385509.804    84703878.855 8-122085976.920 6
 90  3 10  8 35 59.0800000  0  4G 3G12G19G13
  21406035.845    21406038.002    25311448.580 9 -50824025.571 9
  23263584.857    23263590.260    63160474.404 9 -66330824.191 8
  22833841.704    22833843.687    -1591595.347 9   5404868.320 8
  22389639.071    22389642.151    84725585.781 8-122069062.461 7
 90  3 10  8 36 14.0800000  0  4G 3G12G19G13
  21404678.243    21404680.225    25304316.167 9 -50829583.297 9
  23273477.565    23273483.668    63212463.215 9 -66290313.436 9
  22837641.664    22837643.928    -1571622.830 9   5420431.296 9
  22393772.082    22393774.737    84747305.539 8-122052137.971 7
 90  3 10  8 36 29.0800000  0  4G 3G12G19G13
  21403327.074    21403328.383    25297210.006 9 -50835120.554 8
  23283375.713    23283380.666    63264481.755 9 -66249779.532 8
  22841463.220    22841465.471    -1551546.049 9   5436075.524 9
  22397908.256    22397909.312    84769038.019 8-122035203.586 7
 90  3 10  8 36 44.0800000  0  4G 3G12G19G13
  21401979.994    21401981.085    25290129.863 9 -50840637.543 9
  23293280.573    23293286.315    63316529.459 8 -66209222.890 9
  22845303.235    22845304.473    -1531365.116 9   5451800.939 8
  22402047.111    22402048.516    84790783.389 9-122018259.152 8
 90  3 10  8 36 59.0800000  0  4G 3G12G19G13
  21400636.144    21400637.137    25283075.804 9 -50846134.203 9
  23303189.621    23303196.338    63368605.970 8 -66168643.810 9
  22849163.684    22849165.169    -1511079.979 7   5467607.523 8
  22406189.433    22406190.045    84812541.610 9-122001304.691 7
 90  3 10  8 37 14.0800000  0  4G 3G12G19G13
  21399298.664    21399300.431    25276047.956 9 -50851610.435 8
  23313105.491    23313112.306    63420710.931 8 -66128042.561 8
  22853043.651    22853045.507    -1490691.295 9   5483494.816 8
  22410331.035    22410331.720    84834312.564 9-121984340.318 6
 90  3 10  8 37 29.0800000  0  4G 3G12G19G13
  21397966.135    21397967.586    25269046.364 9 -50857066.219 9
  23323025.688    23323033.000    63472843.821 8 -66087419.551 9
  22856942.592    22856945.820    -1470199.170 8   5499462.697 8
  22414475.623    22414476.787    84856096.369 8-121967365.939 7
 90  3 10  8 37 44.0800000  0  4G 3G12G19G13
  21396638.897    21396640.159    25262070.768 9 -50862501.740 9
  23332952.798    23332957.176    63525004.192 9 -66046775.112 9
  22860861.233    22860865.941    -1449603.955 9   5515510.915 8
  22418624.802    22418625.986    84877893.186 9-121950381.397 7
 90  3 10  8 37 59.0800000  0  4G 3G12G19G13
  21395317.658    21395317.821    25255121.530 9 -50867916.739 9
  23342883.451    23342888.825    63577191.693 9 -66006109.548 9
  22864800.200    22864803.152    -1428905.932 9   5531639.228 8
  22422775.951    22422775.648    84899703.076 8-121933386.682 7
 90  3 10  8 38 14.0800000  0  4G 3G12G19G13
  21394000.145    21394000.321    25248198.457 9 -50873311.345 8
  23352820.529    23352823.376    63629405.888 9 -65965423.162 7
  22868758.839    22868761.792    -1408105.357 8   5547847.466 9
  22426927.711    22426928.512    84921525.965 8-121916381.840 7
 90  3 10  8 38 29.0800000  0  4G 3G12G19G13
  21392687.469    21392688.656    25241301.544 9 -50878685.563 8
  23362761.414    23362764.001    63681646.368 9 -65924716.306 9
  22872736.481    22872739.739    -1387202.473 9   5564135.418 8
  22431082.870    22431083.237    84943361.938 8-121899366.798 7
 90  3 10  8 38 44.0800000  0  4G 3G12G19G13
  21391379.744    21391381.860    25234430.866 9 -50884039.340 9
  23372707.267    23372710.367    63733912.655 9 -65883989.351 8
  22876730.831    22876738.117    -1366197.911 1   5580502.605 1
  22435239.687    22435242.595    84965210.955 7-121882341.594 7
 90  3 10  8 38 59.0800000  0  4G 3G12G19G13
  21390077.454    21390079.707    25227586.247 9 -50889372.814 9
  23382657.603    23382660.791    63786204.334 9 -65843242.600 8
  22880750.658    22880751.486    -1345091.588 1   5596949.074 1
  22439400.971    22439402.231    84987073.135 8-121865306.143 6
 90  3 10  8 39 14.0800000  0  4G 3G12G19G13
  21388779.203    21388781.136    25220768.118 9 -50894685.642 9
  23392613.410    23392615.978    63838521.026 9 -65802476.368 9
  22884783.860    22884790.468    -1323883.815 1   5613474.607 1
  22443561.722    22443563.206    85008948.662 8-121848260.280 6
 90  3 10  8 39 29.0800000  0  4G 3G12G19G13
  21387485.803    21387489.029    25213976.096 8 -50899978.126 8
  23402573.917    23402577.382    63890862.302 9 -65761690.966 8
  22888841.705    22888843.162    -1302574.938 8   5630078.931 8
  22447726.870    22447722.956    85030837.413 1-121831204.126 1
 90  3 10  8 39 44.0800000  0  4G 3G12G19G13
  21386199.127    21386201.580    25207210.525 9 -50905249.991 9
  23412538.247    23412542.645    63943227.627 9 -65720886.829 9
  22892913.766    22892917.779    -1281165.200 7   5646761.831 9
  22451895.782    22451899.056    85052739.580 2-121814137.519 3
 90  3 10  8 39 59.0800000  0  4G 3G12G19G13
  21384916.028    21384917.931    25200471.003 9 -50910501.566 8
  23422508.271    23422511.928    63995616.642 8 -65680064.236 9
  22897006.405    22897010.298    -1259655.116 8   5663522.925 8
  22456066.191    22456065.463    85074655.204 4-121797060.383 1
 90  3 10  8 40 14.0800000  0  4G 3G12G19G13
  21383639.431    21383640.532    25193758.049 9 -50915732.434 9
  23432481.192    23432486.304    64048029.011 9 -65639223.447 8
  22901117.941    22901124.062    -1238044.811 8   5680362.113 7
  22460236.739    22460241.913    85096584.392 6-121779972.716 5
 90  3 10  8 40 29.0800000  0  4G 3G12G19G13
  21382368.038    21382368.708    25187071.450 9 -50920942.755 7
  23442459.664    23442465.107    64100464.286 9 -65598364.806 8
  22905250.531    22905255.455    -1216334.604 9   5697279.152 7
  22464413.600    22464416.299    85118527.099 7-121762874.445 6
 90  3 10  8 40 44.0800000  0  4G 3G12G19G13
  21381100.714    21381100.967    25180411.191 9 -50926132.554 8
  23452442.102    23452447.402    64152921.999 9 -65557488.673 7
  22909400.836    22909404.329    -1194524.679 9   5714273.881 7
  22468592.020    22468594.601    85140483.382 7-121745765.646 6
 90  3 10  8 40 59.0800000  0  4G 3G12G19G13
  21379838.115    21379839.043    25173777.324 9 -50931301.797 9
  23462428.679    23462434.532    64205401.745 9 -65516595.381 8
  22913569.571    22913572.897    -1172615.490 9   5731345.976 8
  22472774.450    22472774.060    85162453.346 7-121728646.198 6
 90  3 10  8 41 14.0800000  0  3G 3G19G13
  21378580.081    21378582.595    25167169.789 9 -50936450.517 9
  22917758.587    22917761.646    -1150607.140 9   5748495.322 8
  22476955.289    22476957.900    85184436.948 7-121711516.125 6
 90  3 10  8 41 29.0800000  0  3G 3G19G13
  21377328.010    21377329.877    25160588.776 9 -50941578.580 9
  22921966.300    22921969.111    -1128499.920 9   5765721.718 8
  22481141.701    22481144.804    85206434.288 7-121694375.345 6
 90  3 10  8 41 44.0800000  0  3G 3G19G13
  21376080.775    21376083.403    25154034.115 9 -50946686.095 8
  22926191.872    22926193.681    -1106294.356 9   5783024.759 8
  22485328.808    22485333.128    85228445.402 7-121677223.822 7
 90  3 10  8 41 59.0800000  0  3G 3G19G13
  21374838.515    21374840.340    25147505.873 9 -50951773.038 8
  22930438.057    22930438.460    -1083990.595 8   5800404.312 7
  22489520.591    22489524.668    85250470.507 7-121660061.366 6
 90  3 10  8 42 14.0800000  0  3G 3G19G13
  21373600.730    21373602.676    25141004.223 9 -50956839.261 8
  22934700.117    22934700.900    -1061589.058 9   5817860.055 7
  22493715.503    22493719.958    85272509.501 6-121642888.132 6
 90  3 10  8 42 29.0800000  0  3G 3G19G13
  21372368.218    21372370.177    25134529.214 9 -50961884.726 9
  22938981.404    22938982.697    -1039090.022 9   5835391.766 9
  22497910.618    22497917.179    85294562.343 6-121625704.081 7
 90  3 10  8 42 44.0800000  0  4G 3G16G19G13
  21371140.577    21371142.889    25128080.685 6 -50966909.545 8
                  23541404.161   -17116260.942 9
  22943281.439    22943282.063    -1016493.700 7   5852999.293 3
  22502111.456    22502114.502    85316629.180 5-121608509.160 5
 90  3 10  8 42 59.0800000  0  4G 3G16G19G13
  21369918.921    21369921.688    25121658.727 9 -50971913.670 9
                  23531437.435   -17168626.778 9
  22947598.432    22947601.828     -993800.585 9   5870682.221 8
  22506313.040    22506317.358    85338710.114 7-121591303.242 7
 90  3 10  8 43 14.0800000  0  4G 3G16G19G13
  21368702.274    21368703.915    25115263.332 9 -50976897.082 8
                  23521505.272   -17220976.323 8
  22951934.530    22951939.023     -971010.926 9   5888440.399 8
  22510519.469    22510522.147    85360805.094 7-121574086.383 5
 90  3 10  8 43 29.0800000  0  4G 3G16G19G13
  21367489.383    21367491.557    25108894.494 8 -50981859.792 9
  23511545.902    23511550.159   -17273308.738 9  22195157.229 9
  22956289.501    22956293.856     -948124.692 8   5906273.826 9
  22514727.225    22514729.714    85382914.235 6-121556858.485 7
 90  3 10  8 43 44.0800000  0  4G 3G16G19G13
  21366282.900    21366285.603    25102552.216 9 -50986801.820 8
  23501590.768    23501595.091   -17325623.769 8  22154392.292 9
  22960663.807    22960667.019     -925142.299 8   5924182.164 8
  22518935.762    22518938.468    85405037.713 7-121539619.377 6
 90  3 10  8 43 59.0800000  0  4G 3G16G19G13
  21365082.116    21365083.091    25096236.602 9 -50991723.075 8
  23491639.593    23491643.454   -17377921.099 8  22113641.143 8
  22965055.536    22965058.403     -902064.059 8   5942165.197 8
  22523147.245    22523147.780    85427175.478 9-121522369.167 7
 90  3 10  8 44 14.0800000  0  4G 3G16G19G13
  21363884.697    21363886.812    25089947.670 9 -50996623.516 8
  23481690.288    23481694.511   -17430200.465 9  22072904.002 9
  22969466.592    22969468.374     -878890.408 8   5960222.583 8
  22527364.299    22527366.028    85449327.689 7-121505107.704 6
 90  3 10  8 44 29.0800000  0  4G 3G16G19G13
  21362692.911    21362695.288    25083685.541 8 -51001503.087 9
  23471747.135    23471750.423   -17482461.216 9  22032181.354 9
  22973893.201    22973895.798     -855621.656 8   5978354.066 9
  22531582.321    22531582.831    85471494.330 8-121487835.001 7
 90  3 10  8 44 44.0800000  0  4G 3G16G19G13
  21361507.342    21361508.941    25077450.196 9 -51006361.776 8
  23461805.299    23461809.537   -17534703.356 8  21991473.215 9
  22978336.815    22978342.155     -832258.092 8   5996559.411 9
  22535803.624    22535805.879    85493675.212 7-121470551.199 6
 90  3 10  8 44 59.0800000  0  4G 3G16G19G13
  21360325.646    21360327.096    25071241.671 9 -51011199.575 9
  23451867.823    23451871.703   -17586926.360 9  21950779.981 9
  22982802.576    22982804.713     -808800.233 7   6014838.259 8
  22540027.746    22540029.368    85515870.573 7-121453256.145 6
 90  3 10  8 45 14.0800000  0  4G 3G16G19G13
  21359149.785    21359151.050    25065060.006 9 -51016016.423 8
  23441935.688    23441937.722   -17639129.787 9  21910102.000 9
  22987285.150    22987288.064     -785248.015 9   6033190.630 7
  22544253.455    22544253.307    85538080.535 7-121435949.682 6
 90  3 10  8 45 29.0800000  0  4G 3G16G19G13
  21357979.756    21357979.241    25058905.159 9 -51020812.403 8
  23432005.195    23432007.315   -17691313.271 9  21869439.564 9
  22991783.719    22991786.204     -761602.036 9   6051616.053 8
  22548483.436    22548483.514    85560304.993 7-121418631.950 6
 90  3 10  8 45 44.0800000  0  4G 3G16G19G13
  21356812.672    21356813.502    25052777.077 9 -51025587.533 8
  23422078.593    23422080.423   -17743476.723 9  21828792.739 9
  22996302.986    22996304.546     -737862.421 8   6070114.448 8
  22552713.657    22552715.506    85582544.222 7-121401302.701 6
 90  3 10  8 45 59.0800000  0  4G 3G16G19G13
  21355651.164    21355651.844    25046675.905 9 -51030341.689 9
  23412155.731    23412159.020   -17795619.585 8  21788161.954 9
  23000837.979    23000842.194     -714029.432 9   6088685.610 8
  22556950.565    22556950.055    85604798.262 7-121383961.885 6
 90  3 10  8 46 14.0800000  0  4G 3G16G19G13
  21354494.893    21354496.098    25040601.765 9 -51035074.785 9
  23402237.047    23402240.298   -17847741.548 8  21747547.473 8
  23005390.363    23005394.410     -690103.570 8   6107329.125 8
  22561186.008    22561186.679    85627067.181 7-121366609.477 6
 90  3 10  8 46 29.0800000  0  4G 3G16G19G13
  21353344.339    21353344.954    25034554.718 9 -51039786.765 8
  23392323.553    23392324.686   -17899842.214 8  21706949.580 8
  23009960.500    23009965.839     -666085.308 8   6126044.639 8
  22565428.773    22565428.927    85649351.094 7-121349245.377 6
 90  3 10  8 46 44.0800000  0  4G 3G16G19G13
  21352198.556    21352199.815    25028534.578 9 -51044477.787 9
  23382412.673    23382414.793   -17951921.406 8  21666368.421 9
  23014548.806    23014553.342     -641974.541 8   6144832.241 8
  22569672.295    22569673.075    85671649.998 7-121331869.628 6
 90  3 10  8 46 59.0800000  0  4G 3G16G19G13
  21351057.887    21351059.287    25022541.418 9 -51049147.779 8
  23372506.152    23372507.495   -18003978.444 8  21625804.521 9
  23019154.833    23019157.687     -617771.902 9   6163691.458 8
  22573917.085    22573919.774    85693963.856 7-121314482.248 7
 90  3 10  8 47 14.0800000  0  4G 3G16G19G13
  21349922.796    21349924.972    25016575.413 9 -51053796.614 9
  23362604.210    23362604.751   -18056013.112 8  21585258.067 8
  23023778.002    23023780.017     -593477.602 8   6182622.079 7
  22578163.542    22578168.063    85716292.663 7-121297083.182 6
 90  3 10  8 47 29.0800000  0  4G 3G16G19G13
  21348792.711    21348793.375    25010636.502 9 -51058424.329 7
  23352707.019    23352707.803   -18108025.163 8  21544729.210 8
  23028418.840    23028419.252     -569092.001 9   6201623.852 8
  22582416.560    22582419.348    85738636.505 7-121279672.409 6
 90  3 10  8 47 44.0800000  0  4G 3G16G19G13
  21347667.870    21347669.279    25004724.831 9 -51063030.826 8
  23342813.433    23342814.356   -18160014.118 9  21504218.353 8
  23033076.179    23033077.848     -544615.321 8   6220696.577 8
  22586672.349    22586672.944    85760995.579 6-121262249.780 6
 90  3 10  8 47 59.0800000  0  4G 3G16G19G13
  21346548.261    21346548.746    24998840.176 9 -51067616.257 8
  23332924.417    23332925.102   -18211979.545 9  21463725.831 8
  23037752.332    23037754.047     -520047.863 9   6239840.043 9
  22590929.847    22590931.620    85783369.813 6-121244815.293 7
 90  3 10  8 48 14.0800000  0  4G 3G16G19G13
  21345433.091    21345433.636    24992982.891 9 -51072180.358 7
  23323040.572    23323041.194   -18263921.163 8  21423251.855 8
  23042444.519    23042445.480     -495389.819 9   6259054.100 8
  22595190.266    22595190.920    85805759.452 5-121227368.840 7
 90  3 10  8 48 29.0800000  0  4G 3G16G19G13
  21344324.129    21344326.021    24987152.724 9 -51076723.340 9
  23313160.237    23313162.309   -18315838.782 9  21382796.578 9
  23047153.993    23047155.267     -470641.678 9   6278338.354 8
  22599452.791    22599456.113    85828164.558 5-121209910.323 8
 90  3 10  8 48 44.0800000  0  4G 3G16G19G13
  21343220.546    21343220.860    24981350.012 9 -51081244.927 9
  23303285.807    23303287.154   -18367731.903 8  21342360.404 8
  23051878.879    23051882.647     -445803.768 9   6297692.566 7
  22603718.064    22603720.350    85850585.064 7-121192439.812 5
 90  3 10  8 48 59.0800000  0  4G 3G16G19G13
  21342120.412    21342121.539    24975574.620 9 -51085745.235 7
  23293415.927    23293416.106   -18419600.179 8  21301943.573 9
  23056622.684    23056626.042     -420876.350 8   6317116.526 8
  22607988.400    22607990.511    85873020.910 6-121174957.329 7
 90  3 10  8 49 14.0800000  0  4G 3G16G19G13
  21341026.120    21341028.148    24969826.521 8 -51090224.280 8
  23283549.748    23283551.577   -18471443.208 9  21261546.412 8
  23061383.939    23061386.283     -395859.729 9   6336610.002 8
  22612262.650    22612264.448    85895472.231 6-121157462.790 7
 90  3 10  8 49 29.0800000  0  4G 3G16G19G13
  21339938.689    21339939.734    24964105.977 9 -51094681.845 8
  23273688.540    23273690.832   -18523260.578 9  21221169.258 9
  23066162.029    23066164.196     -370754.331 9   6356172.645 8
  22616537.104    22616539.048    85917938.989 7-121139956.239 6
 90  3 10  8 49 44.0800000  0  4G 3G16G19G13
  21338854.640    21338856.668    24958412.959 9 -51099117.967 9
  23263833.666    23263835.242   -18575052.002 9  21180812.320 8
  23070955.839    23070958.613     -345560.558 9   6375804.160 8
  22620816.076    22620818.044    85940421.475 7-121122437.419 7
 90  3 10  8 49 59.0800000  0  4G 3G16G19G13
  21337776.117    21337778.650    24952747.507 8 -51103532.615 9
  23253983.972    23253986.067   -18626817.130 9  21140475.863 9
  23075767.128    23075767.565     -320278.608 9   6395504.374 8
  22625097.889    22625099.767    85962920.011 7-121104906.097 7
 90  3 10  8 50 14.0800000  0  4G 3G16G19G13
  21336703.755    21336705.602    24947109.467 9 -51107925.897 9
  23244138.207    23244140.580   -18678555.505 8  21100160.265 9
  23080592.932    23080596.245     -294908.795 8   6415273.039 8
  22629380.994    22629382.893    85985434.458 7-121087362.398 7
 90  3 10  8 50 29.0800000  0  4G 3G16G19G13
  21335636.323    21335638.369    24941499.049 9 -51112297.655 8
  23234297.986    23234300.335   -18730266.805 8  21059865.779 9
  23085437.693    23085439.157     -269451.502 9   6435109.887 8
  22633668.295    22633672.129    86007964.793 7-121069806.305 6
 90  3 10  8 50 44.0800000  0  4G 3G16G19G13
  21334573.517    21334576.480    24935916.152 9 -51116647.971 8
  23224462.887    23224465.441   -18781950.582 9  21019592.718 8
  23090298.814    23090301.180     -243907.083 9   6455014.608 8
  22637957.270    22637961.008    86030511.028 7-121052237.816 7
 90  3 10  8 50 59.0800000  0  4G 3G16G19G13
  21333516.398    21333519.317    24930360.972 9 -51120976.680 9
  23214634.113    23214635.269   -18833606.689 9  20979341.222 8
  23095175.883    23095179.248     -218275.793 9   6474987.042 8
  22642251.364    22642255.312    86053073.454 8-121034656.725 8
 90  3 10  8 51 14.0800000  0  4G 3G16G19G13
  21332465.874    21332466.103    24924833.492 9 -51125283.796 9
  23204808.525    23204810.397   -18885234.819 9  20939111.538 9
  23100071.146    23100073.826     -192557.776 9   6495027.049 8
  22646549.368    22646550.810    86075652.028 8-121017063.033 7
 90  3 10  8 51 29.0800000  0  4G 3G16G19G13
  21331418.889    21331420.106    24919333.904 9 -51129569.188 9
  23194989.843    23194990.871   -18936834.322 9  20898904.147 8
  23104980.236    23104982.800     -166753.665 9   6515134.151 8
  22650848.932    22650851.341    86098247.026 8-120999456.574 6
 90  3 10  8 51 44.0800000  0  4G 3G16G19G13
  21330377.466    21330378.655    24913862.093 9 -51133832.922 8
  23185176.818    23185177.345   -18988405.041 8  20858719.192 8
  23109908.643    23109910.096     -140863.559 8   6535308.261 8
  22655151.665    22655155.270    86120858.269 8-120981837.394 6
 90  3 10  8 51 59.0800000  0  4G 3G16G19G13
  21329342.799    21329342.813    24908418.142 9 -51138074.955 8
  23175368.564    23175369.754   -19039946.464 9  20818557.060 8
  23114848.863    23114852.338     -114887.807 8   6555549.094 8
  22659458.557    22659459.421    86143485.649 8-120964205.713 6
 90  3 10  8 52 14.0800000  0  4G 3G16G19G13
  21328311.049    21328312.892    24903001.988 9 -51142295.335 8
  23165564.706    23165567.089   -19091458.363 9  20778417.919 9
  23119808.475    23119811.980      -88826.829 8   6575856.343 7
  22663766.802    22663767.400    86166129.190 8-120946561.402 5
 90  3 10  8 52 29.0800000  0  4G 3G16G19G13
  21327284.939    21327286.014    24897613.799 9 -51146493.917 8
  23155768.795    23155769.728   -19142940.322 9  20738302.122 8
  23124782.727    23124787.966      -62680.951 8   6596229.745 9
  22668079.620    22668080.690    86188789.148 8-120928904.317 6
 90  3 10  8 52 44.0800000  0  4G 3G16G19G13
  21326264.064    21326267.768    24892253.634 9 -51150670.660 9
  23145977.530    23145978.382   -19194391.803 8  20698210.070 9
  23129775.142    23129779.093      -36450.355 8   6616669.162 8
  22672394.149    22672394.523    86211465.707 8-120911234.257 4
 90  3 10  8 52 59.0800000  0  4G 3G16G19G13
  21325249.124    21325251.439    24886921.694 9 -51154825.399 8
  23136191.903    23136193.451   -19245812.763 9  20658141.791 9
  23134784.554    23134788.288      -10135.551 9   6637174.190 8
  22676712.953    22676714.667    86234158.898 8-120893551.266 6
 90  3 10  8 53 14.0800000  0  4G 3G16G19G13
  21324239.714    21324242.732    24881617.820 9 -51158958.294 8
  23126414.356    23126414.320   -19297202.576 9  20618097.786 8
  23139807.858    23139810.355       16263.150 9   6657744.603 7
  22681034.697    22681034.980    86256868.884 7-120875855.186 5
 90  3 10  8 53 29.0800000  0  4G 3G16G19G13
  21323236.622    21323237.485    24876342.064 9 -51163069.242 9
  23116640.347    23116640.588   -19348561.073 8  20578078.181 9
  23144847.963    23144850.045       42745.456 9   6678380.169 8
  22685359.233    22685361.578    86279595.598 7-120858146.067 5
 90  3 10  8 53 44.0800000  0  4G 3G16G19G13
  21322237.981    21322240.172    24871094.695 9 -51167158.098 8
  23106873.398    23106874.588   -19399887.854 9  20538083.307 9
  23149903.160    23149905.623       69310.838 8   6699080.466 8
  22689686.280    22689691.073    86302339.134 7-120840423.837 6
 90  3 10  8 53 59.0800000  0  4G 3G16G19G13
  21321245.975    21321246.960    24865875.388 9 -51171225.081 9
  23097111.276    23097114.279   -19451182.416 9  20498113.522 8
  23154974.993    23154976.829       95959.197 8   6719845.402 9
  22694017.750    22694018.642    86325099.451 7-120822688.539 6
 90  3 10  8 54 14.0800000  0  4G 3G16G19G13
  21320257.996    21320259.625    24860684.435 9 -51175269.980 8
  23087357.587    23087358.401   -19502444.575 8  20458168.997 8
  23160061.079    23160065.240      122690.447 9   6740674.949 8
  22698350.652    22698354.601    86347876.819 6-120804939.937 6
 90  3 10  8 54 29.0800000  0  4G 3G16G19G13
  21319276.157    21319276.876    24855521.633 9 -51179292.948 8
  23077609.145    23077609.681   -19553673.745 8  20418250.174 8
  23165164.028    23165166.739      149503.823 8   6761568.503 9
  22702689.161    22702692.245    86370671.068 7-120787178.175 5
 90  3 10  8 54 44.0800000  0  4G 3G16G19G13
  21318299.655    21318300.043    24850387.412 9 -51183293.653 8
  23067866.187    23067868.102   -19604869.733 8  20378357.207 8
  23170280.856    23170284.219      176399.039 9   6782525.802 9
  22707029.765    22707029.411    86393482.344 6-120769403.133 6
 90  3 10  8 54 59.0800000  0  4G 3G16G19G13
  21317328.093    21317328.989    24845281.633 9 -51187272.173 8
  23058130.919    23058133.173   -19656032.055 8  20338490.481 9
  23175413.165    23175417.727      203375.792 8   6803546.648 8
  22711374.129    22711375.817    86416310.591 6-120751614.863 6
 90  3 10  8 55 14.0800000  0  4G 3G16G19G13
  21316361.306    21316360.318    24840204.487 9 -51191228.372 8
  23048400.640    23048403.709   -19707160.584 8  20298650.084 9
  23180562.552    23180566.776      230433.997 9   6824630.955 8
  22715722.943    22715723.568    86439156.023 6-120733813.247 5
 90  3 10  8 55 29.0800000  0  4G 3G16G19G13
  21315400.169    21315400.710    24835155.881 9 -51195162.347 8
  23038677.763    23038680.747   -19758254.652 8  20258836.541 8
  23185727.693    23185730.996      257572.922 9   6845778.175 8
  22720070.566    22720073.205    86462018.994 5-120715997.948 5
 90  3 10  8 55 44.0800000  0  4G 3G16G19G13
  21314444.658    21314445.122    24830135.718 9 -51199074.148 8
  23028961.869    23028964.237   -19809314.002 8  20219050.041 9
  23190908.083    23190910.509      284792.307 8   6866988.063 8
  22724423.949    22724428.346    86484899.465 6-120698169.060 4
 90  3 10  8 55 59.0800000  0  4G 3G16G19G13
  21313496.221    21313494.969    24825144.450 9 -51202963.451 8
  23019251.174    23019255.031   -19860338.352 9  20179290.829 9
  23196102.997    23196106.164      312092.165 9   6888260.676 8
  22728781.900    22728784.060    86507797.546 6-120680326.409 5
 90  3 10  8 56 14.0800000  0  4G 3G16G19G13
  21312551.145    21312550.811    24820181.931 9 -51206830.348 8
  23009548.263    23009551.013   -19911327.314 9  20139559.180 9
  23201313.339    23201316.466      339472.320 9   6909595.848 8
  22733144.053    22733145.013    86530713.212 4-120662470.058 4
 90  3 10  8 56 29.0800000  0  4G 3G16G19G13
  21311612.689    21311611.442    24815248.198 9 -51210674.822 8
  22999852.259    22999854.514   -19962280.558 9  20099855.353 9
  23206538.605    23206541.245      366932.014 9   6930992.993 8
  22737508.933    22737511.453    86553646.295 6-120644600.133 6
 90  3 10  8 56 44.0800000  0  4G 3G16G19G13
  21310678.501    21310678.513    24810343.214 9 -51214496.899 9
  22990161.722    22990166.389   -20013197.660 9  20060179.700 8
  23211779.333    23211781.107      394470.973 8   6952451.918 8
  22741873.944    22741877.697    86576596.976 6-120626716.515 5
 90  3 10  8 56 59.0800000  0  4G 3G16G19G13
  21309749.938    21309750.242    24805467.264 8 -51218296.348 8
  22980479.254    22980483.502   -20064078.163 9  20020532.568 9
  23217035.716    23217035.502      422088.759 9   6973972.262 8
  22746248.621    22746248.427    86599565.492 5-120608818.985 6
 90  3 10  8 57 14.0800000  0  4G 3G16G19G13
  21308827.204    21308829.535    24800620.341 9 -51222073.179 9
  22970804.704    22970807.726   -20114921.812 8  19980914.143 9
  23222303.789    23222307.376      449785.087 9   6995553.804 8
  22750621.677    22750623.791    86622551.835 6-120590907.577 6
 90  3 10  8 57 29.0800000  0  4G 3G16G19G13
  21307910.630    21307911.889    24795802.324 9 -51225827.460 9
  22961137.767    22961139.277   -20165728.327 8  19941324.656 9
  23227588.810    23227591.188      477559.510 9   7017196.189 8
  22754999.979    22755001.253    86645556.149 7-120572982.154 6
 90  3 10  8 57 44.0800000  0  4G 3G16G19G13
  21306999.191    21307001.629    24791013.491 9 -51229559.011 8
  22951476.620    22951478.597   -20216497.233 9  19901764.486 8
  23232888.966    23232893.442      505411.868 8   7038899.321 9
  22759382.856    22759383.574    86668578.531 6-120555042.671 6
 90  3 10  8 57 59.0800000  0  4G 3G16G19G13
  21306094.221    21306095.739    24786253.713 9 -51233267.928 9
  22941823.582    22941825.850   -20267228.037 9  19862233.997 9
  23238204.492    23238208.045      533341.625 9   7060662.754 8
  22763766.322    22763767.618    86691618.929 7-120537089.134 6
 90  3 10  8 58 14.0800000  0  4G 3G16G19G13
  21305193.931    21305194.893    24781523.376 9 -51236953.895 9
  22932177.936    22932178.502   -20317920.426 8  19822733.453 9
  23243534.821    23243536.736      561348.622 9   7082486.394 9
  22768152.870    22768153.991    86714677.329 6-120519121.537 5
 90  3 10  8 58 29.0800000  0  4G 3G16G19G13
  21304299.905    21304300.825    24776822.193 9 -51240617.152 8
  22922538.578    22922540.483   -20368574.170 9  19783263.018 9
  23248879.483    23248880.156      589432.492 9   7104369.921 8
  22772541.009    22772547.194    86737753.912 5-120501139.845 6
 90  3 10  8 58 44.0800000  0  4G 3G16G19G13
  21303411.624    21303412.225    24772150.501 9 -51244257.429 8
  22912907.070    22912908.418   -20419188.915 8  19743822.964 9
  23254238.178    23254238.452      617592.975 9   7126313.149 7
  22776936.969    22776940.677    86760848.762 4-120483143.839 6
 90  3 10  8 58 59.0800000  0  4G 3G16G19G13
  21302527.959    21302528.180    24767508.191 9 -51247874.796 9
  22903283.079    22903284.279   -20469764.155 9  19704413.700 9
  23259609.574    23259612.438      645829.647 9   7148315.754 7
  22781330.756    22781339.105    86783962.017 4-120465133.521 6
 90  3 10  8 59 14.0800000  0  4G 3G16G19G13
  21301649.178    21301650.109    24762895.300 9 -51251469.261 8
  22893667.283    22893667.639   -20520299.773 9  19665035.311 9
  23264996.010    23264999.532      674142.215 8   7170377.489 6
  22785734.526    22785740.425    86807093.744 1-120447108.795 6
 90  3 10  8 59 29.0800000  0  4G 3G16G19G13
  21300775.327    21300778.132    24758312.056 9 -51255040.626 9
  22884057.106    22884058.334   -20570795.157 9  19625688.258 9
  23270399.210    23270402.197      702530.052 9   7192497.865 7
  22790142.992    22790147.428    86830244.093 5-120429069.582 5
 90  3 10  8 59 44.0800000  0  4G 3G16G19G13
  21299910.079    21299910.737    24753758.338 9 -51258588.972 8
  22874455.590    22874457.233   -20621249.991 9  19586372.809 9
  23275814.724    23275817.684      730993.088 7   7214676.863 7
  22794548.865    22794553.987    86853412.827 2-120411016.029 5
 90  3 10  8 59 59.0800000  0  4G 3G16G19G13
  21299049.997    21299050.590    24749234.115 9 -51262114.328 8
  22864861.162    22864863.602   -20671663.849 9  19547089.292 9
  23281246.319    23281247.293      759530.850 8   7236914.072 8
  22798963.439    22798967.016    86876600.234 4-120392947.926 4
 90  3 10  9  0 14.0800000  0  4G 3G16G19G13
  21298193.896    21298194.956    24744739.970 9 -51265616.273 9
  22855275.434    22855277.349   -20722036.486 9  19507837.892 8
  23286690.693    23286692.174      788142.974 9   7259209.233 7
  22803378.824    22803382.696    86899806.357 5-120374865.213 4
 90  3 10  9  0 29.0800000  0  4G 3G16G19G13
  21297343.783    21297345.245    24740275.557 9 -51269095.028 9
  22845697.739    22845699.234   -20772367.542 9  19468618.897 9
  23292149.080    23292152.099      816829.218 9   7281562.159 7
  22807798.147    22807803.114    86923031.606 6-120356767.627 6
 90  3 10  9  0 44.0800000  0  4G 3G16G19G13
  21296500.500    21296500.289    24735840.848 8 -51272550.655 9
  22836127.989    22836129.766   -20822656.562 9  19429432.647 9
  23297622.246    23297624.080      845589.195 8   7303972.527 7
  22812224.868    22812224.975    86946275.810 6-120338655.241 4
 90  3 10  9  0 59.0800000  0  4G 3G16G19G13
  21295662.226    21295664.037    24731436.149 9 -51275982.898 8
  22826566.348    22826569.051   -20872903.267 9  19390279.368 9
  23303107.612    23303111.803      874422.460 9   7326440.007 8
  22816648.841    22816648.844    86969538.863 6-120320528.176 5
 90  3 10  9  1 14.0800000  0  4G 3G16G19G13
  21294829.105    21294831.836    24727061.462 9 -51279391.747 9
  22817012.988    22817015.313   -20923107.260 9  19351159.377 8
  23308609.175    23308611.550      903328.877 8   7348964.475 7
  22821081.604    22821083.570    86992821.063 6-120302386.224 5
 90  3 10  9  1 29.0800000  0  4G 3G16G19G13
  21294002.377    21294005.052    24722716.772 9 -51282777.225 9
  22807468.099    22807469.928   -20973268.198 8  19312072.928 9
  23314125.566    23314128.218      932307.943 8   7371545.545 7
  22825517.274    22825517.582    87016122.408 8-120284229.332 6
 90  3 10  9  1 44.0800000  0  4G 3G16G19G13
  21293182.317    21293184.194    24718402.379 9 -51286139.095 8
  22797931.232    22797933.242   -21023385.485 9  19273020.503 9
  23319654.678    23319655.924      961359.391 9   7394183.029 9
  22829953.590    22829954.355    87039443.018 6-120266057.422 4
 90  3 10  9  1 59.0800000  0  4G 3G16G19G13
  21292367.336    21292368.400    24714118.119 9 -51289477.473 8
  22788402.626    22788404.279   -21073459.007 9  19234002.183 9
  23325196.228    23325198.243      990482.949 8   7416876.713 8
  22834394.577    22834394.475    87062782.720 5-120247870.645 5
 90  3 10  9  2 14.0800000  0  4G 3G16G19G13
  21291558.284    21291558.904    24709864.198 9 -51292792.209 9
  22778882.463    22778884.497   -21123488.367 9  19195018.263 9
  23330750.975    23330754.159     1019677.951 8   7439626.052 8
  22838839.045    22838840.210    87086141.623 4-120229668.886 5
 90  3 10  9  2 29.0800000  0  4G 3G16G19G13
  21290754.893    21290754.752    24705640.483 9 -51296083.412 8
  22769371.191    22769373.530   -21173473.113 9  19156069.130 8
  23336319.760    23336324.293     1048944.467 9   7462431.134 8
  22843286.704    22843291.627    87109520.185 6-120211451.834 5
 90  3 10  9  2 44.0800000  0  4G 3G16G19G13
  21289956.643    21289957.160    24701447.291 9 -51299350.837 9
  22759867.388    22759868.521   -21223413.047 9  19117154.895 9
  23341901.845    23341906.918     1078282.091 8   7485291.615 9
  22847741.519    22847743.115    87132918.400 6-120193219.446 5
 90  3 10  9  2 59.0800000  0  4G 3G16G19G13
  21289163.636    21289165.375    24697284.686 9 -51302594.426 8
  22750372.781    22750374.047   -21273307.723 9  19078275.933 9
  23347499.212    23347502.398     1107690.328 8   7508207.111 8
  22852198.022    22852200.163    87156336.493 6-120174971.575 5
 90  3 10  9  3 14.0800000  0  4G 3G16G19G13
  21288376.899    21288379.199    24693152.528 9 -51305814.311 8
  22740886.941    22740889.867   -21323156.790 9  19039432.501 9
  23353107.641    23353111.199     1137168.737 8   7531177.289 9
  22856657.613    22856658.739    87179774.156 4-120156708.486 5
 90  3 10  9  3 29.0800000  0  4G 3G16G19G13
  21287595.859    21287598.434    24689050.944 8 -51309010.368 8
  22731408.932    22731412.025   -21372959.662 9  19000625.071 9
  23358731.940    23358734.045     1166717.010 8   7554201.913 8
  22861121.165    22861122.866    87203231.578 6-120138429.982 5
 90  3 10  9  3 44.0800000  0  4G 3G16G19G13
  21286821.974    21286822.951    24684980.229 8 -51312182.356 8
  22721941.227    22721942.741   -21422716.240 9  18961853.719 8
  23364366.771    23364369.583     1196334.863 7   7577280.749 8
  22865590.243    22865587.134    87226708.844 6-120120136.022 5
 90  3 10  9  3 59.0800000  0  4G 3G16G19G13
  21286052.866    21286054.444    24680940.391 9 -51315330.309 9
  22712482.040    22712483.135   -21472426.135 9  18923118.729 9
  23370016.073    23370019.901     1226021.896 8   7600413.473 9
  22870062.738    22870063.578    87250205.863 7-120101826.698 5
 90  3 10  9  4 14.0800000  0  4G 3G16G19G13
  21285290.880    21285292.308    24676931.360 8 -51318454.220 8
  22703030.990    22703032.161   -21522088.820 9  18884420.533 9
  23375679.733    23375682.039     1255777.784 8   7623599.877 7
  22874535.472    22874537.293    87273723.017 5-120083501.666 4
 90  3 10  9  4 29.0800000  0  4G 3G16G19G13
  21284534.897    21284535.006    24672953.282 8 -51321554.024 8
  22693589.899    22693590.565   -21571704.091 9  18845759.292 8
  23381355.342    23381357.413     1285602.072 9   7646839.565 8
  22879013.602    22879016.085    87297260.103 5-120065161.090 5
 90  3 10  9  4 44.0800000  0  4G 3G16G19G13
  21283781.702    21283783.865    24669006.273 9 -51324629.627 8
  22684158.138    22684158.689   -21621271.536 9  18807135.298 8
  23387043.401    23387046.576     1315494.514 8   7670132.388 8
  22883495.053    22883497.611    87320817.302 3-120046804.856 5
 90  3 10  9  4 59.0800000  0  4G 3G16G19G13
  21283037.122    21283037.700    24665090.365 9 -51327680.978 8
  22674733.694    22674735.400   -21670790.728 9  18768548.911 8
  23392742.190    23392746.976     1345454.734 8   7693478.010 8
  22887982.755    22887988.608    87344394.875 5-120028432.775 5
 90  3 10  9  5 14.0800000  0  4G 3G16G19G13
  21282298.867    21282298.884    24661205.418 9 -51330708.208 8
  22665319.848    22665321.301   -21720261.244 9  18730000.451 8
  23398457.634    23398460.687     1375482.348 7   7716876.162 8
  22892473.966    22892475.781    87367992.894 5-120010044.701 5
 90  3 10  9  5 29.0800000  0  4G 3G16G19G13
  21281565.037    21281565.966    24657351.973 9 -51333710.904 8
  22655915.408    22655919.169   -21769682.902 9  18691490.077 8
  23404183.607    23404188.580     1405577.092 8   7740326.608 7
  22896968.476    22896968.444    87391611.443 3-119991640.688 3
 90  3 10  9  5 44.0800000  0  4G 3G16G19G13
  21280836.657    21280838.093    24653529.817 9 -51336689.228 8
  22646520.079    22646523.363   -21819055.182 9  18653018.151 8
  23409924.842    23409928.498     1435738.680 8   7763829.139 8
  22901469.231    22901468.298    87415250.450 3-119973220.687 2
 90  3 10  9  5 59.0800000  0  4G 3G16G19G13
  21280116.335    21280116.732    24649739.124 9 -51339643.007 7
  22637134.870    22637137.973   -21868377.691 9  18614585.025 9
  23415677.554    23415678.766     1465966.594 9   7787383.351 8
  22905969.782    22905969.114    87438910.278 4-119954784.514 3
 90  3 10  9  6 14.0800000  0  4G 3G16G19G13
  21279400.149    21279400.674    24645979.992 9 -51342572.215 8
  22627758.057    22627761.526   -21917650.243 9  18576190.816 8
  23421442.263    23421444.018     1496260.461 8   7810988.966 7
  22910475.021    22910474.687    87462590.746 3-119936332.228 3
 90  3 10  9  6 29.0800000  0  4G 3G16G19G13
  21278691.225    21278692.170    24642252.404 9 -51345476.823 9
  22618391.135    22618393.761   -21966872.409 9  18537835.877 8
  23427219.957    23427220.904     1526619.931 9   7834645.693 8
  22914986.086    22914985.973    87486291.895 6-119917863.797 1
 90  3 10  9  6 44.0800000  0  4G 3G16G19G13
  21277987.770    21277988.614    24638556.641 9 -51348356.630 8
  22609032.952    22609037.948   -22016043.819 9  18499520.481 8
  23433008.542    23433010.450     1557044.870 8   7858353.434 8
  22919500.154    22919495.868    87510013.901 5-119899379.061 1
 90  3 10  9  6 59.0800000  0  4G 3G16G19G13
  21277290.930    21277292.356    24634892.328 9 -51351211.928 8
  22599685.987    22599689.214   -22065164.021 9  18461245.002 7
  23438811.332    23438812.739     1587534.607 9   7882111.670 8
  22924019.303    22924015.598    87533756.705 5-119880878.180 2
 90  3 10  9  7 14.0800000  0  4G 3G16G19G13
  21276599.283    21276600.653    24631260.036 8 -51354042.275 9
  22590348.448    22590350.678   -22114232.847 9  18423009.562 8
  23444625.112    23444627.055     1618088.855 8   7905920.168 8
  22928540.926    22928542.755    87557520.525 3-119862360.966 1
 90  3 10  9  7 29.0800000  0  4G 3G16G19G13
  21275914.670    21275916.246    24627659.531 9 -51356847.864 8
  22581021.554    22581022.744   -22163249.620 8  18384814.671 8
  23450452.959    23450453.449     1648707.440 9   7929778.817 8
  22933066.553    22933070.383    87581305.519 3-119843827.195 3
 90  3 10  9  7 44.0800000  0  4G 3G16G19G13
  21275235.071    21275237.534    24624091.175 9 -51359628.402 9
  22571704.934    22571704.946   -22212214.249 8  18346660.430 9
  23456291.747    23456292.602     1679389.977 9   7953687.280 7
  22937597.100    22937597.604    87605111.890 4-119825276.832 3
 90  3 10  9  7 59.0800000  0  4G 3G16G19G13
  21274561.940    21274565.266    24620554.742 9 -51362384.070 8
  22562397.720    22562397.308   -22261126.386 9  18308547.071 8
  23462142.993    23462143.371     1710135.694 9   7977644.980 8
  22942131.251    22942134.184    87628939.404 6-119806709.961 4
 90  3 10  9  8 14.0800000  0  4G 3G16G19G13
  21273895.986    21273896.853    24617050.520 9 -51365114.640 9
  22553100.914    22553099.142   -22309985.556 9  18270475.002 8
  23468004.068    23468006.487     1740944.772 8   8001652.031 8
  22946671.287    22946671.264    87652788.219 3-119788126.419 4
 90  3 10  9  8 29.0800000  0  4G 3G16G19G13
  21273234.939    21273236.504    24613578.520 9 -51367820.089 9
  22543813.056    22543812.610   -22358791.288 8  18232444.562 8
  23473878.745    23473881.063     1771816.642 9   8025708.020 8
  22951214.489    22951211.763    87676658.435 3-119769526.297 3
 90  3 10  9  8 44.0800000  0  4G 3G16G19G13
  21272580.619    21272581.548    24610138.823 9 -51370500.372 8
  22534535.853    22534535.536   -22407543.396 9  18194455.895 9
  23479765.526    23479767.667     1802751.036 9   8049812.737 8
  22955759.112    22955761.710    87700550.089 4-119750909.564 1
 90  3 10  9  8 59.0800000  0  4G 3G16G19G13
  21271931.541    21271932.829    24606731.623 9 -51373155.340 7
  22525269.593    22525269.872   -22456241.418 8  18156509.392 9
  23485663.059    23485666.279     1833747.521 9   8073965.834 8
  22960311.165    22960309.753    87724463.405 6-119732275.827 2
 90  3 10  9  9 14.0800000  0  4G 3G16G19G13
  21271290.377    21271291.462    24603356.870 9 -51375784.999 9
  22516012.499    22516013.355   -22504884.948 9  18118605.353 8
  23491572.631    23491576.118     1864805.707 8   8098167.012 7
  22964862.850    22964863.614    87748398.537 5-119713625.117 1
 90  3 10  9  9 29.0800000  0  4G 3G16G19G13
  21270654.919    21270654.879    24600014.688 9 -51378389.306 9
  22506765.441    22506767.652   -22553473.786 9  18080743.909 9
  23497494.266    23497497.343     1895925.098 9   8122415.875 7
  22969420.210    22969425.428    87772355.523 5-119694957.354 3
 90  3 10  9  9 44.0800000  0  4G 3G16G19G13
  21270024.599    21270025.157    24596705.106 9 -51380968.213 8
  22497529.983    22497531.207   -22602007.573 9  18042925.375 8
  23503427.873    23503432.374     1927105.310 8   8146712.125 7
  22973984.134    22973990.806    87796334.522 3-119676272.421 1
 90  3 10  9  9 59.0800000  0  4G 3G16G19G13
  21269401.488    21269402.953    24593428.411 9 -51383521.486 9
  22488304.415    22488305.460   -22650485.650 1  18005150.252 3
  23509373.662    23509377.119     1958346.179 9   8171055.653 8
  22978553.171    22978558.160    87820335.435 5-119657570.345 4
 90  3 10  9 10 14.0800000  0  4G 3G16G19G13
  21268784.219    21268783.342    24590184.623 9 -51386049.122 8
  22479090.786    22479092.940   -22698907.963 3  17967418.580 2
  23515331.580    23515334.150     1989647.378 9   8195446.201 8
  22983125.029    22983126.465    87844358.678 4-119638850.898 1
 90  3 10  9 10 29.0800000  0  4G 3G16G19G13
  21268171.977    21268173.501    24586973.621 9 -51388551.217 8
  22469886.224    22469887.957   -22747273.960 1  17929730.797 3
  23521298.726    23521301.429     2021008.524 8   8219883.448 7
  22987700.647    22987704.538    87868403.900 5-119620114.382 4
 90  3 10  9 10 44.0800000  0  4G 3G16G19G13
  21267568.576    21267568.252    24583795.757 1 -51391027.494 1
  22460693.047    22460693.928   -22795583.582 9  17892086.950 9
  23527278.201    23527279.555     2052429.410 9   8244367.256 8
  22992282.144    22992278.449    87892471.208 1-119601360.610 1
 90  3 10  9 10 59.0800000  0  4G 3G16G19G13
                  20891856.453   -27518939.757 1
  22451511.534    22451510.706   -22843836.113 7  17854487.582 6
  23533268.991    23533269.787     2083909.401 6   8268897.123 8
                  22622727.205   -27531923.046 1
 90  3 10  9 11 14.0800000  0  4G 3G16G19G13
                  20890985.839   -27603698.415 1
  22442342.226    22442341.003   -22892031.168 4  17816933.004 5
  23539270.655    23539271.119     2115448.265 8   8293472.859 8
                  22627093.803   -27613426.727 1
 90  3 10  9 11 29.0800000  0  4G 3G16G19G13
                  21639916.067   -27693739.666 1
  22433180.554    22433179.973   -22940168.653 7  17779423.266 7
  23545282.592    23545285.955     2147045.670 3   8318094.199 5
                  23382002.648   -27708877.262 1
 90  3 10  9 11 44.0800000  0  4G 3G16G19G13
                  20890320.019   -27803348.111 1
  22424031.291    22424030.187   -22988248.019 6  17741958.820 5
  23551305.413    23551309.404     2178701.058 6   8342760.717 5
                  23386810.142   -27788213.010 1
 90  3 10  9 11 59.0800000  0  3G 3G16G19
                  20908700.768   -27806693.883 1
  22414892.861    22414893.103   -23036268.981 9  17704539.877 7
  23557340.873    23557344.254     2210414.195 9   8367472.241 8
 90  3 10  9 12 14.0800000  0  3G 3G16G19
                  20928904.030   -27810030.303 1
  22405767.031    22405767.387   -23084231.219 9  17667166.696 8
  23563386.129    23563389.487     2242184.864 8   8392228.618 7
 90  3 10  9 12 29.0800000  0  3G 3G16G19
                  20948960.767   -27813357.371 1
  22396650.330    22396651.555   -23132134.356 9  17629839.556 9
  23569442.440    23569446.019     2274012.591 8   8417029.434 8
 90  3 10  9 12 44.0800000  0  3G 3G16G19
                  20968988.199   -27816675.086 1
  22387545.677    22387547.727   -23179977.777 9  17592558.966 9
  23575511.500    23575513.461     2305897.194 9   8441874.593 7
 90  3 10  9 12 59.0800000  0  3G 3G16G19
                  20988927.715   -27819983.450 1
  22378452.519    22378454.703   -23227761.398 9  17555324.967 8
  23581590.219    23581590.513     2337837.914 9   8466763.457 8
 90  3 10  9 13 14.0800000  0  3G 3G16G19
                  21008779.315   -27823282.461 1
  22369370.852    22369373.995   -23275484.776 9  17518137.920 9
  23587678.830    23587680.786     2369834.049 8   8491695.499 8
 90  3 10  9 13 29.0800000  0  3G 3G16G19
                  21028752.881   -27826572.120 1
  22360301.343    22360304.040   -23323147.568 9  17480998.078 9
  23593776.349    23593780.614     2401885.879 7   8516670.921 7
 90  3 10  9 13 44.0800000  0  3G 3G16G19
                  21049670.201   -27829852.426 1
  22351241.500    22351245.876   -23370749.402 9  17443905.738 9
  23599886.984    23599888.643     2433993.043 9   8541689.482 7
 90  3 10  9 13 59.0800000  0  3G 3G16G19
                  21069796.280   -27833123.381 1
  22342196.398    22342198.422   -23418289.828 9  17406861.249 9
  23606006.971    23606009.910     2466154.864 8   8566750.622 7
 90  3 10  9 14 14.0800000  0  3G 3G16G19
                  21089453.476   -27836384.983 1
  22333160.227    22333163.287   -23465768.547 9  17369864.851 9
  23612137.324    23612141.221     2498371.398 8   8591854.393 8
 90  3 10  9 14 29.0800000  0  3G 3G16G19
                  21109843.302   -27839637.233 1
  22324137.856    22324140.412   -23513185.328 9  17332916.706 9
  23618276.082    23618280.941     2530642.020 9   8617000.341 8
 90  3 10  9 14 44.0800000  0  3G 3G16G19
                  21129852.160   -27842880.130 1
  22315126.572    22315128.675   -23560539.664 9  17296017.231 8
  23624427.947    23624431.924     2562966.499 8   8642188.243 7
 90  3 10  9 14 59.0800000  0  3G 3G16G19
                  21150422.297   -27846113.675 1
  22306128.205    22306128.887   -23607831.228 9  17259166.658 8
  23630590.595    23630593.709     2595344.431 9   8667417.806 7
 90  3 10  9 15 14.0800000  0  3G 3G16G19
                  21170119.530   -27849337.869 1
  22297140.892    22297141.675   -23655059.710 9  17222365.247 8
  23636763.340    23636763.861     2627775.281 8   8692688.604 6
 90  3 10  9 15 29.0800000  0  3G 3G16G19
                  20914171.810   -27852552.710 1
  22288165.990    22288167.379   -23702224.656 9  17185613.333 9
  23642943.986    23642946.000     2660258.672 8   8718000.328 8
 90  3 10  9 15 44.0800000  0  4G 3G16G19G13
                  28451812.090   -29207117.899 8
  22279203.571    22279202.767   -23749325.708 7  17148911.229 5
  23649135.927    23649137.933     2692794.237 6   8743352.710 6
                  21200607.595   -29176217.169 2
 90  3 10  9 15 59.0800000  0  4G 3G16G19G13
                  21256322.907   -29209580.154 9
  22270251.865    22270253.991   -23796362.601 9  17112259.095 8
  23655336.161    23655337.787     2725381.850 8   8768745.643 7
                  21039753.393   -29157098.973 2
 90  3 10  9 16 14.0800000  0  4G 3G16G19G13
                  21255890.336   -29212006.961 9
  22261312.895    22261315.314   -23843334.931 9  17075657.267 9
  23661546.680    23661549.471     2758021.090 7   8794178.811 8
                  21113160.241   -29132753.446 2
 90  3 10  9 16 29.0800000  0  4G 3G16G19G13
  21255436.305    21255436.248   -29214398.819 9  37280418.957 7
  22252386.621    22252389.222   -23890242.181 9  17039106.155 9
  23667767.522    23667770.479     2790711.465 7   8819651.836 8
                  21134984.646   -29113036.146 2
 90  3 10  9 16 44.0800000  0  4G 3G16G19G13
  21254987.270    21254987.655   -29216755.299 9  37278582.739 8
  22243473.225    22243475.436   -23937084.191 9  17002605.885 9
  23673996.958    23674001.178     2823452.425 8   8845164.264 8
                  21178169.512   -29090425.049 2
 90  3 10  9 16 59.0800000  0  4G 3G16G19G13
  21254545.773    21254546.904   -29219076.322 9  37276774.150 6
  22234571.689    22234574.260   -23983860.518 9  16966156.799 8
  23680236.727    23680240.904     2856243.711 9   8870715.911 7
                  21096170.050   -29068091.534 2
 90  3 10  9 17 14.0800000  0  4G 3G16G19G13
  21254110.216    21254110.531   -29221361.795 8  37274993.271 7
  22225682.209    22225685.711   -24030570.898 9  16929759.098 9
  23686487.331    23686490.381     2889085.314 8   8896306.766 8
                  20991378.806   -29046943.373 2
 90  3 10  9 17 29.0800000  0  4G 3G16G19G13
  21253682.444    21253683.402   -29223611.424 9  37273240.314 7
  22216807.227    22216809.567   -24077214.931 9  16893413.104 8
  23692747.256    23692749.342     2921976.814 8   8921936.509 8
                  21197630.787   -29028270.472 2
 90  3 10  9 17 44.0800000  0  4G 3G16G19G13
  21253259.522    21253261.224   -29225825.493 9  37271515.068 7
  22207943.541    22207945.670   -24123792.245 9  16857119.100 9
  23699015.579    23699018.251     2954917.394 8   8947604.466 8
                  21123608.927   -29005598.863 2
 90  3 10  9 17 59.0800000  0  4G 3G16G19G13
  21252845.198    21252847.745   -29228003.672 9  37269817.767 8
  22199092.953    22199094.723   -24170302.559 9  16820877.299 9
  23705294.250    23705295.342     2987907.056 8   8973310.691 7
                  21111917.728   -28981861.857 2
 90  3 10  9 18 14.0800000  0  4G 3G16G19G13
  21252437.013    21252439.734   -29230145.820 9  37268148.566 8
  22190255.245    22190257.142   -24216745.201 9  16784688.232 9
  23711579.448    23711583.477     3020945.485 8   8999054.897 7
                  21251869.723   -28962038.162 2
 90  3 10  9 18 29.0800000  0  4G 3G16G19G13
  21252037.446    21252039.104   -29232251.853 9  37266507.493 7
  22181430.147    22181431.349   -24263120.208 9  16748551.853 9
  23717875.534    23717879.533     3054032.133 8   9024836.693 8
                  21063728.861   -28938449.754 2
 90  3 10  9 18 44.0800000  0  4G 3G16G19G13
  21251644.858    21251645.744   -29234321.673 9  37264894.647 7
  22172617.668    22172619.733   -24309427.095 9  16712468.570 9
  23724181.013    23724184.369     3087166.436 9   9050655.627 8
                  21077854.002   -28917625.818 2
 90  3 10  9 18 59.0800000  0  4G 3G16G19G13
  21251258.596    21251258.654   -29236355.234 9  37263310.064 7
  22163818.724    22163821.257   -24355665.370 9  16676438.753 8
  23730495.402    23730499.315     3120348.347 8   9076511.647 8
                  21105156.891   -28896861.038 2
 90  3 10  9 19 14.0800000  0  4G 3G16G19G13
  21250878.200    21250878.314   -29238352.250 9  37261753.954 7
  22155033.756    22155035.470   -24401834.760 9  16640462.606 8
  23736818.319    23736822.172     3153577.549 9   9102404.523 8
                  21064707.818   -28873331.888 2
 90  3 10  9 19 29.0800000  0  4G 3G16G19G13
  21250504.086    21250503.414   -29240312.875 9  37260226.179 7
  22146261.271    22146262.824   -24447934.949 8  16604540.367 8
  23743150.105    23743155.218     3186853.635 7   9128333.926 8
                  21255725.231   -28851574.010 2
 90  3 10  9 19 44.0800000  0  4G 3G16G19G13
  21250137.672    21250137.586   -29242236.969 9  37258726.882 7
  22137501.476    22137503.909   -24493965.540 9  16568672.368 8
  23749491.822    23749495.069     3220176.052 9   9154299.440 9
                  21130994.085   -28832043.541 2
 90  3 10  9 19 59.0800000  0  4G 3G16G19G13
  21249777.910    21249779.167   -29244124.094 9  37257256.376 8
  22128756.346    22128758.193   -24539926.370 9  16532858.729 8
  23755842.169    23755844.393     3253544.288 9   9180300.665 7
                  21308255.356   -28813264.360 2
 90  3 10  9 20 14.0800000  0  4G 3G16G19G13
  21249427.192    21249428.393   -29245974.539 9  37255814.464 8
  22120022.667    22120026.433   -24585816.727 9  16497100.011 9
  23762200.503    23762203.801     3286958.365 8   9206337.591 8
                  21221733.905   -28788520.501 2
 90  3 10  9 20 29.0800000  0  4G 3G16G19G13
  21249081.652    21249080.508   -29247787.905 9  37254401.457 8
  22111303.281    22111306.566   -24631636.500 9  16461396.281 7
  23768567.098    23768569.351     3320417.604 8   9232409.710 8
                  21222581.236   -28765121.208 2
 90  3 10  9 20 44.0800000  0  4G 3G16G19G13
  21248743.770    21248744.386   -29249564.212 9  37253017.328 7
  22102598.316    22102601.183   -24677385.084 9  16425748.030 7
  23774942.946    23774944.887     3353921.518 8   9258516.652 8
                  21057196.775   -28745171.089 2
 90  3 10  9 20 59.0800000  0  4G 3G16G19G13
  21248413.214    21248413.729   -29251303.404 9  37251662.118 7
  22093905.984    22093907.862   -24723062.471 9  16390155.249 7
  23781326.631    23781328.824     3387470.116 9   9284658.419 7
                  21153039.867   -28721503.544 2
 90  3 10  9 21 14.0800000  0  4G 3G16G19G13
  21248089.497    21248089.827   -29253005.258 9  37250336.008 8
  22085228.625    22085229.573   -24768668.128 9  16354618.368 8
  23787719.255    23787722.296     3421062.875 8   9310834.583 8
                  21149249.614   -28700893.322 2
 90  3 10  9 21 29.0800000  0  4G 3G16G19G13
  21247772.549    21247771.934   -29254669.693 9  37249039.057 8
  22076564.263    22076564.362   -24814201.592 9  16319137.740 7
  23794119.211    23794123.001     3454699.591 8   9337044.992 8
                  21162571.763   -28679686.267 2
 90  3 10  9 21 44.0800000  0  4G 3G16G19G13
  21247463.170    21247462.796   -29256296.609 9  37247771.332 7
  22067913.825    22067912.225   -24859662.763 9  16283713.452 8
  23800529.113    23800532.517     3488379.849 8   9363289.336 8
                  21129733.034   -28656206.833 2
 90  3 10  9 21 59.0800000  0  4G 3G16G19G13
  21247160.617    21247160.760   -29257885.874 9  37246532.959 8
  22059276.790    22059274.950   -24905051.037 9  16248345.970 8
  23806945.755    23806950.573     3522103.108 7   9389567.201 8
                  21306705.403   -28634342.675 2
 90  3 10  9 22 14.0800000  0  4G 3G16G19G13
  21246865.403    21246865.274   -29259437.402 9  37245323.964 8
  22050653.012    22050652.453   -24950366.190 9  16213035.450 7
  23813372.101    23813374.885     3555869.124 7   9415878.358 7
                  21160372.231   -28614376.931 2
 90  3 10  9 22 29.0800000  0  4G 3G16G19G13
  21246576.601    21246577.690   -29260951.142 9  37244144.423 8
  22042043.199    22042042.190   -24995607.955 9  16177782.131 7
  23819804.603    23819808.563     3589677.376 7   9442222.440 7
                  21056912.828   -28595481.326 2
 90  3 10  9 22 44.0800000  0  3G 3G16G19
  21246296.271    21246296.828   -29262426.879 9  37242994.492 8
  22033446.984    22033449.235   -25040775.783 9  16142586.424 9
  23826245.993    23826251.099     3623527.743 7   9468599.344 7
 90  3 10  9 22 59.0800000  0  3G 3G16G19
  21246022.664    21246023.352   -29263864.498 9  37241874.247 9
  22024865.354    22024867.659   -25085869.332 9  16107448.591 8
  23832695.356    23832699.006     3657419.784 7   9495008.716 7
 90  3 10  9 23 14.0800000  0  3G 3G16G19
  21245756.428    21245756.772   -29265263.856 9  37240783.826 8
  22016298.377    22016301.353   -25130888.383 9  16072368.809 9
  23839153.223    23839155.101     3691353.060 8   9521450.201 8
 90  3 10  9 23 29.0800000  0  3G 3G16G19
  21245497.489    21245499.350   -29266625.030 9  37239723.147 8
  22007745.569    22007749.729   -25175832.638 9  16037347.321 9
  23845619.139    23845622.613     3725327.234 8   9547923.571 8
 90  3 10  9 23 44.0800000  0  3G 3G16G19
  21245245.331    21245246.047   -29267947.757 9  37238692.451 8
  21999207.296    21999211.642   -25220701.639 9  16002384.457 9
  23852091.751    23852095.983     3759341.866 8   9574428.468 6
 90  3 10  9 23 59.0800000  0  3G 3G16G19
  21245000.732    21245002.163   -29269231.870 9  37237691.845 8
  21990684.789    21990687.575   -25265494.989 9  15967480.556 9
  23858572.229    23858575.250     3793396.580 7   9600964.602 8
 90  3 10  9 24 14.0800000  0  3G 3G16G19
  21244763.241    21244765.718   -29270477.252 9  37236721.415 9
  21982176.386    21982178.964   -25310212.405 9  15932635.806 8
  23865060.846    23865064.619     3827491.142 8   9627531.788 7
 90  3 10  9 24 29.0800000  0  3G 3G16G19
  21244533.566    21244535.741   -29271683.888 9  37235781.184 8
  21973680.234    21973683.594   -25354853.435 9  15897850.582 9
  23871556.304    23871558.194     3861625.137 9   9654129.699 7
 90  3 10  9 24 44.0800000  0  3G 3G16G19
  21244310.972    21244313.977   -29272851.582 9  37234871.298 9
  21965200.021    21965202.215   -25399417.996 9  15863124.947 9
  23878059.331    23878061.717     3895798.132 9   9680758.011 8
 90  3 10  9 24 59.0800000  0  3G 3G16G19
  21244096.349    21244098.824   -29273980.260 9  37233991.823 9
  21956735.101    21956736.382   -25443905.325 9  15828459.482 9
  23884570.228    23884572.069     3930009.733 9   9707416.394 8
 90  3 10  9 25 14.0800000  0  3G 3G16G19
  21243889.708    21243891.684   -29275069.784 8  37233142.861 8
  21948283.745    21948284.939   -25488315.366 9  15793854.254 9
  23891087.178    23891090.565     3964259.635 8   9734104.628 8
 90  3 10  9 25 29.0800000  0  3G 3G16G19
  21243689.839    21243690.468   -29276120.134 9  37232324.415 8
  21939848.076    21939848.684   -25532647.705 9  15759309.581 9
  23897611.734    23897615.470     3998547.512 9   9760822.462 8
 90  3 10  9 25 44.0800000  0  3G 3G16G19
  21243497.424    21243498.953   -29277131.014 8  37231536.729 9
  21931426.047    21931427.607   -25576901.915 9  15724825.763 8
  23904143.442    23904146.601     4032872.979 8   9787569.574 8
 90  3 10  9 25 59.0800000  0  3G 3G16G19
  21243312.248    21243313.249   -29278102.306 8  37230779.883 9
  21923019.832    21923020.284   -25621077.921 9  15690402.894 9
  23910683.260    23910685.400     4067235.606 9   9814345.647 8
 90  3 10  9 26 14.0800000  0  3G 3G16G19
  21243133.699    21243136.818   -29279034.123 8  37230053.777 9
  21914628.727    21914628.983   -25665175.140 9  15656041.411 9
  23917228.541    23917230.705     4101635.018 8   9841150.385 8
 90  3 10  9 26 29.0800000  0  3G 3G16G19
  21242963.704    21242966.911   -29279926.020 8  37229358.796 8
  21906251.456    21906253.908   -25709193.187 9  15621741.634 9
  23923781.931    23923783.951     4136070.929 8   9867983.554 7
 90  3 10  9 26 44.0800000  0  3G 3G16G19
  21242801.770    21242804.072   -29280778.205 8  37228694.752 9
  21897890.514    21897892.296   -25753131.826 9  15587503.730 9
  23930341.952    23930342.540     4170543.078 8   9894844.968 7
 90  3 10  9 26 59.0800000  0  3G 3G16G19
  21242648.646    21242650.164   -29281590.355 8  37228061.906 9
  21889543.101    21889546.467   -25796990.814 9  15553327.889 9
  23936906.756    23936909.523     4205050.671 7   9921733.995 7
 90  3 10  9 27 14.0800000  0  3G 3G16G19
  21242502.034    21242503.207   -29282362.317 8  37227460.370 9
  21881213.344    21881216.661   -25840769.575 9  15519214.576 9
  23943480.851    23943484.304     4239593.529 8   9948650.493 7
 90  3 10  9 27 29.0800000  0  4G 3G16G19G13
  21242362.591    21242364.123   -29283094.231 8  37226890.042 9
  21872898.209    21872900.387   -25884467.816 9  15485163.997 9
  23950061.042    23950065.115     4274171.506 8   9975594.375 8
                  22504443.405   -33457053.697 4
 90  3 10  9 27 44.0800000  0  4G 3G16G19G13
  21242231.248    21242232.565   -29283785.626 9  37226351.278 9
  21864598.798    21864599.249   -25928085.390 9  15451176.280 9
  23956647.040    23956650.127     4308784.286 8  10002565.368 6
                  22644301.097   -33435689.085 4
 90  3 10  9 27 59.0800000  0  4G 3G16G19G13
  21242106.386    21242108.817   -29284436.649 9  37225843.990 8
  21856314.113    21856315.970   -25971621.748 9  15417251.833 8
  23963239.170    23963242.572     4343431.218 8  10029562.952 7
                  22473780.488   -33409897.427 4
 90  3 10  9 28 14.0800000  0  4G 3G16G19G13
  21241991.125    21241992.312   -29285047.150 9  37225368.278 8
  21848045.208    21848046.269   -26015076.365 9  15383391.088 8
  23969838.373    23969842.941     4378111.955 9  10056586.896 7
                  22497477.706   -33387592.170 4
 90  3 10  9 28 29.0800000  0  4G 3G16G19G13
  21241883.763    21241883.820   -29285616.831 8  37224924.371 8
  21839791.425    21839791.730   -26058449.255 9  15349594.040 8
  23976444.475    23976448.791     4412826.012 7  10083636.815 7
                  22502434.931   -33366740.917 4
 90  3 10  9 28 44.0800000  0  4G 3G16G19G13
  21241782.355    21241782.940   -29286145.626 8  37224512.320 8
  21831552.150    21831554.157   -26101740.048 9  15315860.957 9
  23983057.689    23983061.341     4447573.434 9  10110712.710 7
                  22507284.525   -33341856.182 4
 90  3 10  9 28 59.0800000  0  4G 3G16G19G13
  21241689.201    21241690.876   -29286633.573 8  37224132.096 8
  21823330.397    21823331.038   -26144948.304 9  15282192.197 8
  23989676.004    23989679.782     4482353.718 8  10137814.235 8
                  22722163.804   -33318969.586 4
 90  3 10  9 29 14.0800000  0  4G 3G16G19G13
  21241604.349    21241605.422   -29287080.316 9  37223783.970 7
  21815123.496    21815124.741   -26188073.729 9  15248587.977 8
  23996301.228    23996303.887     4517166.427 8  10164941.019 7
                  22586059.998   -33298665.262 4
 90  3 10  9 29 29.0800000  0  4G 3G16G19G13
  21241526.148    21241529.296   -29287485.872 8  37223467.951 7
  21806933.429    21806934.527   -26231115.815 9  15215048.698 7
  24002932.148    24002935.051     4552011.362 8  10192092.899 7
                  22719195.012   -33278747.101 4
 90  3 10  9 29 44.0800000  0  4G 3G16G19G13
  21241457.536    21241458.296   -29287850.034 8  37223184.198 7
  21798757.147    21798759.525   -26274074.335 9  15181574.509 8
  24009569.204    24009571.211     4586887.800 9  10219269.347 7
                  22635465.710   -33254249.110 4
 90  3 10  9 29 59.0800000  0  4G 3G16G19G13
  21241395.177    21241397.425   -29288172.692 8  37222932.773 8
  21790599.388    21790600.969   -26316948.988 9  15148165.698 8
  24016212.979    24016214.910     4621795.586 8  10246470.207 7
                  22641747.310   -33229517.579 4
 90  3 10  9 30 14.0800000  0  4G 3G16G19G13
  21241341.675    21241343.850   -29288453.808 9  37222713.728 8
  21782457.530    21782458.224   -26359739.472 9  15114822.447 8
  24022860.572    24022862.541     4656734.100 8  10273695.002 7
                  22474983.884   -33208622.086 4
 90  3 10  9 30 29.0800000  0  4G 3G16G19G13
  21241297.216    21241298.433   -29288693.187 9  37222527.217 8
  21774330.008    21774331.657   -26402445.337 9  15081545.141 7
  24029515.924    24029517.450     4691703.065 8  10300943.550 7
                  22579201.065   -33183611.041 4
 90  3 10  9 30 44.0800000  0  4G 3G16G19G13
  21241259.271    21241261.573   -29288890.758 9  37222373.272 8
  21766220.059    21766221.766   -26445066.343 9  15048333.951 8
  24036175.180    24036178.501     4726701.910 8  10328215.344 8
                  22591677.702   -33161764.187 4
 90  3 10  9 30 59.0800000  0  4G 3G16G19G13
  21241229.492    21241232.296   -29289046.404 9  37222251.984 8
  21758125.282    21758127.345   -26487602.163 9  15015189.151 8
  24042841.269    24042844.789     4761730.645 8  10355510.451 7
                  22600689.701   -33139627.365 4
 90  3 10  9 31 14.0800000  0  4G 3G16G19G13
  21241207.842    21241211.949   -29289159.672 8  37222163.715 8
  21750047.475    21750049.357   -26530052.343 9  14982111.097 9
  24049512.775    24049515.449     4796788.861 8  10382828.554 7
                  22574410.005   -33115045.037 4
 90  3 10  9 31 29.0800000  0  4G 3G16G19G13
  21241194.778    21241197.411   -29289230.804 8  37222108.277 8
  21741985.737    21741986.952   -26572416.569 9  14949100.025 8
  24056188.487    24056193.450     4831876.236 8  10410169.344 8
                  22764994.472   -33092000.854 4
 90  3 10  9 31 44.0800000  0  4G 3G16G19G13
  21241189.456    21241191.402   -29289259.493 9  37222085.945 9
  21733940.931    21733941.600   -26614694.373 9  14916156.283 9
  24062871.191    24062875.187     4866992.581 9  10437532.716 8
                  22606070.095   -33071510.944 4
 90  3 10  9 31 59.0800000  0  4G 3G16G19G13
  21241192.030    21241195.008   -29289245.537 9  37222096.820 7
  21725912.870    21725913.265   -26656885.542 9  14883280.064 8
  24069559.866    24069561.740     4902137.144 8  10464918.086 8
                  22446733.793   -35014532.699 1
 90  3 10  9 32 14.0800000  0  4G 3G16G19G13
  21241203.893    21241203.536   -29289189.190 9  37222140.725 9
  21717900.711    21717900.784   -26698989.910 9  14850471.471 8
  24076252.394    24076254.734     4937309.570 9  10492325.168 7
                  22574866.496   -34991295.202 1
 90  3 10  9 32 29.0800000  0  4G 3G16G19G13
  21241222.897    21241222.224   -29289090.055 9  37222217.988 7
  21709904.483    21709904.713   -26741007.165 9  14817730.748 8
  24082951.349    24082953.479     4972509.519 8  10519753.677 7
                  22645887.683   -34964813.289 1
 90  3 10  9 32 44.0800000  0  4G 3G16G19G13
  21241249.197    21241248.495   -29288948.253 9  37222328.485 8
  21701925.267    21701926.215   -26782936.741 9  14785058.351 8
  24089654.126    24089656.260     5007736.786 8  10547203.502 6
                  22652603.138   -34942072.493 1
 90  3 10  9 32 59.0800000  0  4G 3G16G19G13
  21241284.526    21241283.553   -29288763.259 9  37222472.637 7
  21693962.631    21693963.980   -26824778.463 9  14752454.395 9
  24096362.851    24096364.407     5042991.013 9  10574674.317 7
                  22663187.954   -34915933.746 1
 90  3 10  9 33 14.0800000  0  4G 3G16G19G13
  21241327.682    21241328.082   -29288535.136 9  37222650.394 8
  21686018.462    21686019.990   -26866531.869 9  14719919.287 9
  24103077.201    24103077.934     5078271.507 9  10602165.614 7
                  22616241.699   -34890277.418 1
 90  3 10  9 33 29.0800000  0  4G 3G16G19G13
  21241380.355    21241380.227   -29288263.634 9  37222861.968 7
  21678089.141    21678090.804   -26908196.603 9  14687453.260 7
  24109796.517    24109797.319     5113578.196 9  10629677.328 7
                  22515886.062   -34866573.270 1
 90  3 10  9 33 44.0800000  0  4G 3G16G19G13
  21241438.337    21241439.552   -29287948.765 9  37223107.316 8
  21670178.139    21670179.291   -26949772.472 9  14655056.489 8
  24116519.626    24116521.290     5148910.599 8  10657209.059 8
                  22679242.741   -34844567.236 1
 90  3 10  9 33 59.0800000  0  4G 3G16G19G13
  21241506.491    21241509.038   -29287590.248 9  37223386.684 8
  21662283.799    21662284.754   -26991259.004 9  14622729.324 8
  24123246.673    24123251.442     5184268.357 8  10684760.532 8
                  22567849.928   -34818789.328 1
 90  3 10  9 34 14.0800000  0  4G 3G16G19G13
  21241583.362    21241585.623   -29287188.167 9  37223700.008 8
  21654405.984    21654406.427   -27032655.952 9  14590471.967 8
  24129980.573    24129982.860     5219651.046 9  10712331.463 8
                  22502833.925   -34791093.877 1
 90  3 10  9 34 29.0800000  0  4G 3G16G19G13
  21241667.112    21241670.304   -29286742.206 9  37224047.508 8
  21646545.223    21646546.112   -27073962.905 9  14558284.717 8
  24136718.223    24136721.111     5255058.325 8  10739921.535 7
                  22638108.457   -34767290.575 1
 90  3 10  9 34 44.0800000  0  4G 3G16G19G13
  21241761.468    21241763.714   -29286252.213 9  37224429.312 7
  21638701.245    21638701.428   -27115179.704 9  14526167.724 9
  24143459.411    24143462.158     5290489.964 7  10767530.607 8
                  22471451.728   -34740867.383 1
 90  3 10  9 34 59.0800000  0  4G 3G16G19G13
  21241863.492    21241864.909   -29285718.156 9  37224845.475 7
  21630875.289    21630877.569   -27156305.779 9  14494121.419 9
  24150205.945    24150210.126     5325945.551 8  10795158.327 7
                  22497004.690   -34716144.518 1
 90  3 10  9 35 14.0800000  0  4G 3G16G19G13
  21241973.458    21241972.744   -29285139.851 9  37225296.100 7
  21623066.811    21623066.826   -27197341.008 9  14462145.929 8
  24156956.236    24156961.385     5361424.825 8  10822804.508 7
                  22490555.715   -34693287.620 1
 90  3 10  9 35 29.0800000  0  4G 3G16G19G13
  21242091.839    21242091.194   -29284517.142 9  37225781.316 6
  21615276.043    21615276.867   -27238284.947 9  14430241.569 8
  24163713.397    24163715.797     5396927.339 7  10850468.804 7
                  22493823.048   -34665573.225 1
 90  3 10  9 35 44.0800000  0  4G 3G16G19G13
  21242218.633    21242218.718   -29283850.050 9  37226301.129 7
  21607503.141    21607503.037   -27279137.322 9  14398408.571 8
  24170473.916    24170477.502     5432452.449 8  10878150.703 7
                  22702345.898   -34640312.930 1
 90  3 10  9 35 59.0800000  0  4G 3G16G19G13
  21242353.825    21242354.341   -29283138.318 9  37226855.733 7
  21599746.464    21599746.253   -27319897.758 9  14366647.188 8
  24177239.499    24177241.103     5468000.031 8  10905850.116 7
                  22587519.912   -34617166.885 1
 90  3 10  9 36 14.0800000  0  4G 3G16G19G13
  21242496.890    21242499.038   -29282381.809 9  37227445.211 7
  21592007.338    21592007.357   -27360566.090 9  14334957.576 9
  24184007.756    24184011.061     5503569.787 8  10933566.780 7
                  22739218.670   -34594842.967 1
 90  3 10  9 36 29.0800000  0  4G 3G16G19G13
  21242649.512    21242651.888   -29281580.355 9  37228069.715 7
  21584285.712    21584286.555   -27401141.795 9  14303340.126 8
  24190780.545    24190782.131     5539161.205 7  10961300.353 7
                  22596170.110   -34567563.195 1
 90  3 10  9 36 44.0800000  0  4G 3G16G19G13
  21242811.350    21242814.496   -29280734.063 9  37228729.186 7
  21576581.211    21576583.529   -27441624.694 9  14271795.015 9
  24197557.592    24197561.322     5574774.006 8  10989050.577 8
                  22526807.497   -34539585.859 1
